GFSWCAN_500_spd_000.txt.gz
Wind_Speed
59 58 50 49 47 42 40 37 31 31 34 33 34 34 36 42 50 55 51 52 50 48 47 45 42 39 38 36 35 34 33 31 30 29 29 28 28 26 25 25 26 30 34 36 39 43 46 44 47 48 49 50 50 50
50 49 46 45 40 38 38 34 31 32 31 31 32 29 34 40 43 46 50 51 50 48 47 45 42 40 39 39 38 38 36 33 34 34 34 33 33 31 31 33 33 35 35 39 41 42 45 48 49 50 49 49 48 50
46 43 41 39 35 35 37 31 34 32 30 31 38 29 35 37 35 34 43 50 50 48 46 44 42 42 40 40 40 38 38 37 38 39 38 37 38 38 39 40 40 39 41 42 42 41 44 47 49 47 48 48 48 48
42 40 36 33 34 36 33 37 37 33 30 30 33 30 35 40 50 42 37 41 45 46 45 44 43 42 41 41 40 39 39 40 41 41 41 42 43 44 44 44 45 42 39 40 43 42 44 43 42 45 46 45 46 46
33 30 34 38 37 32 36 39 38 36 32 26 27 26 28 35 41 43 44 42 40 41 42 41 41 41 40 40 40 40 41 42 41 42 42 42 43 43 43 43 41 35 35 40 42 41 41 41 42 42 43 42 46 49
35 36 29 31 34 37 39 39 37 35 32 33 29 27 26 28 32 35 36 37 37 38 38 38 38 38 38 38 40 40 40 39 39 38 37 38 35 37 41 39 33 32 38 40 40 40 40 40 41 42 44 48 51 54
28 30 23 30 41 35 38 38 38 37 35 34 31 28 25 25 25 28 29 28 28 29 31 33 34 34 34 33 32 31 31 30 32 32 31 31 30 35 38 40 29 34 38 39 40 43 43 44 48 50 52 54 56 54
32 30 29 36 45 35 34 35 36 33 29 27 28 28 28 27 24 23 24 25 26 27 27 28 28 26 27 27 28 28 28 29 30 31 33 34 38 40 42 36 36 38 40 41 44 46 49 50 52 54 56 54 50 51
36 39 30 43 38 35 32 34 33 33 32 29 27 25 25 25 24 24 24 25 26 27 28 28 28 27 28 28 29 29 31 33 35 36 36 37 38 39 38 39 40 41 43 45 48 50 53 53 52 50 48 49 53 53
25 27 29 46 37 40 41 34 33 32 30 29 28 28 26 26 25 26 27 28 29 30 31 31 31 31 30 30 31 32 34 36 39 38 40 42 42 43 43 43 44 45 47 48 48 50 50 49 48 49 51 53 54 53
22 26 36 50 41 41 41 37 33 35 35 35 34 33 32 32 33 34 36 36 35 36 36 35 31 30 30 32 33 36 40 42 44 44 43 43 41 39 40 40 41 43 45 47 49 49 51 53 55 56 57 58 56 55
24 26 28 35 36 33 38 40 41 43 41 40 39 38 38 37 37 40 41 39 38 36 36 34 31 31 33 35 38 40 40 42 44 42 42 42 41 39 40 43 45 46 48 48 50 53 53 54 55 55 55 55 55 54
29 28 27 29 33 34 34 33 36 37 44 43 40 36 36 39 42 44 43 41 40 37 35 33 32 33 36 37 35 34 36 38 38 41 43 44 42 43 44 44 45 46 47 50 52 53 57 56 56 55 53 51 50 50
31 28 24 24 27 29 30 30 28 28 31 33 33 34 35 37 37 36 34 33 34 34 35 36 35 35 33 35 35 35 38 40 43 44 42 43 47 48 49 51 52 55 57 58 58 56 56 53 53 53 48 50 53 55
34 33 28 25 23 25 26 27 28 27 25 27 30 33 34 34 35 35 35 34 34 35 35 36 36 35 34 36 38 41 42 42 46 48 50 50 53 54 54 55 56 54 52 50 51 52 54 54 53 50 50 52 53 54
37 34 32 29 28 26 27 28 29 28 27 28 29 31 33 34 35 36 37 36 37 38 39 40 41 43 43 44 46 47 48 50 50 49 49 49 49 50 52 50 50 52 53 53 52 51 52 52 52 53 54 57 59 58
30 32 33 32 31 31 31 31 31 32 32 31 32 33 35 37 39 40 40 41 41 42 45 47 47 46 48 49 49 48 48 47 47 47 47 49 50 47 47 48 49 51 50 48 50 51 52 54 56 56 56 56 56 58
27 27 28 30 32 33 33 33 33 34 36 34 35 38 39 39 41 42 43 44 44 45 46 46 46 45 45 44 45 47 48 48 49 49 49 50 50 50 51 52 52 54 57 56 53 54 54 53 51 50 48 50 55 58
15 16 19 21 21 22 25 28 31 32 35 35 36 37 37 39 40 42 41 41 41 42 41 40 41 41 41 42 42 42 42 42 42 43 45 47 49 51 54 56 56 54 54 53 49 47 47 47 47 49 54 57 59 63
12 12 13 14 15 17 17 17 20 20 21 21 21 22 23 24 25 25 25 26 26 27 28 30 33 34 35 37 39 41 43 45 47 49 50 51 53 53 52 50 49 48 48 46 45 47 48 51 55 58 62 66 67 68
10 11 13 15 16 16 17 18 19 20 21 23 24 25 25 26 27 28 29 30 32 33 35 37 39 40 42 44 46 48 49 50 51 51 51 51 51 49 47 45 44 45 45 47 50 51 55 58 61 65 68 69 71 71
15 15 15 16 17 18 20 22 23 25 27 28 29 31 32 33 35 36 38 38 39 40 43 45 47 48 49 51 52 53 53 52 51 51 50 46 43 42 43 44 46 46 49 52 54 57 61 65 69 71 73 73 71 71
24 24 25 26 28 29 31 32 34 36 37 37 39 40 41 43 45 47 48 48 48 50 51 52 52 52 52 52 51 49 48 46 43 39 38 41 43 44 45 46 47 50 53 55 58 62 67 70 73 74 73 73 76 74
31 32 33 34 36 38 39 41 43 44 45 47 48 50 50 52 53 54 54 53 52 53 52 50 49 47 45 44 41 37 36 38 38 40 41 42 42 44 46 48 51 53 55 58 62 66 71 73 72 74 76 73 72 72
34 36 38 40 42 43 45 47 49 50 52 54 54 55 56 57 58 58 56 54 50 47 43 40 37 35 33 33 35 37 39 41 39 39 40 41 44 46 48 50 53 57 61 65 69 71 71 73 75 72 72 74 74 72
34 36 36 37 37 38 37 35 35 34 34 33 31 30 31 34 37 40 38 35 33 31 28 28 30 31 33 34 34 33 36 37 38 40 43 45 48 50 53 56 61 65 68 70 69 71 72 71 71 72 71 67 64 61
18 17 21 21 16 14 14 17 15 12 12 13 14 14 13 19 20 16 16 19 23 24 23 25 27 30 32 36 38 39 39 40 41 44 46 49 53 57 60 63 66 68 69 71 71 69 68 69 67 64 60 58 57 56
13 10 9 10 11 12 12 12 13 13 12 11 12 14 16 15 14 18 18 19 21 25 29 32 35 37 39 41 42 43 44 45 48 50 53 57 60 63 65 67 68 70 69 67 67 68 65 62 58 55 53 52 50 50
7 9 13 15 15 15 16 17 16 14 13 13 13 14 15 16 17 19 20 23 26 29 32 35 38 40 41 43 44 46 49 52 54 57 60 63 65 67 67 66 66 66 65 64 62 59 54 51 50 48 48 47 46 47
6 7 9 10 12 13 14 14 14 15 17 17 18 19 21 22 23 24 26 27 29 32 34 36 39 41 44 47 50 53 55 57 60 61 62 62 63 63 63 61 60 59 58 54 48 46 47 47 46 44 43 45 47 48
15 16 18 20 21 21 22 22 23 23 23 24 25 26 27 28 29 31 32 34 36 38 40 42 44 46 48 50 52 54 55 57 57 58 57 57 56 57 57 56 54 49 42 40 42 42 43 40 38 39 41 43 45 47
22 24 26 27 28 30 30 30 30 30 30 31 32 32 30 29 28 29 31 34 37 40 42 44 46 47 48 49 50 50 51 52 53 53 54 54 53 51 49 46 41 37 37 39 40 40 36 35 37 39 41 44 47 48
28 28 28 28 29 31 32 32 32 33 32 29 25 24 24 26 29 33 37 40 41 42 43 44 45 46 48 48 48 48 49 49 50 49 48 47 45 44 41 38 36 36 37 38 39 37 35 35 37 39 41 45 47 47

GFSWCAN_500_spd_003.txt.gz
Wind_Speed
76 73 73 71 67 63 58 50 45 44 39 39 39 41 42 42 42 47 49 51 53 51 48 45 42 38 34 32 29 28 28 26 25 24 23 24 23 23 22 21 22 24 26 28 31 35 39 40 42 44 46 48 50 50
70 68 66 64 60 55 49 44 39 37 37 39 40 39 39 38 40 43 45 48 52 50 47 43 40 38 36 36 33 32 32 30 29 28 28 29 28 28 28 30 30 30 32 35 36 37 40 43 45 46 46 47 47 46
65 63 61 56 51 47 42 38 32 34 36 36 36 36 36 36 36 38 43 44 42 47 47 44 41 39 36 36 36 33 32 29 31 31 31 32 34 33 35 36 37 37 39 40 39 38 40 43 43 43 43 43 43 44
57 56 52 48 44 41 40 34 30 34 31 33 32 33 32 32 33 37 41 44 40 41 44 43 41 40 39 38 36 33 33 33 34 35 34 35 36 38 39 41 42 40 37 36 38 37 39 38 37 39 40 41 42 43
46 46 43 41 37 36 37 34 30 31 27 31 31 30 27 31 33 30 35 37 45 43 42 39 39 39 39 38 37 37 36 37 37 36 37 38 39 40 41 43 39 31 33 38 38 36 37 36 38 39 39 40 42 44
38 36 33 32 30 33 32 31 31 28 27 26 30 32 30 33 38 41 29 32 42 42 39 40 40 39 38 38 38 37 37 37 37 38 39 40 38 39 42 39 29 29 34 35 37 38 39 40 42 43 44 46 48 49
28 27 23 23 30 32 30 32 32 29 26 27 29 28 30 43 38 38 39 36 35 37 34 34 34 33 33 34 36 36 36 36 37 37 36 35 33 35 35 34 30 32 35 37 40 41 42 44 45 46 48 49 52 53
24 20 20 24 25 25 33 32 30 28 29 32 30 27 27 33 35 32 31 31 32 33 33 34 35 35 34 33 31 32 31 31 31 31 30 30 33 34 37 36 35 35 37 39 42 44 45 47 48 50 52 52 51 51
26 22 25 28 31 32 36 35 30 29 29 29 30 31 28 26 26 27 28 29 30 30 30 29 27 25 27 25 24 25 27 29 31 32 33 36 37 39 38 37 37 40 41 43 44 45 47 48 48 49 52 53 54 55
27 24 19 30 25 28 27 32 31 31 30 28 28 27 26 27 26 25 25 25 24 24 24 24 22 23 23 22 24 28 31 33 37 37 38 40 42 42 41 41 41 41 42 43 44 44 47 49 51 52 53 54 55 56
27 25 23 22 32 27 22 21 30 33 29 25 23 23 23 23 22 22 23 24 24 25 25 24 22 22 23 27 29 32 36 38 40 40 42 44 45 41 40 40 40 39 40 41 44 48 50 52 53 53 54 55 56 58
22 23 26 23 38 26 36 24 23 29 32 31 28 25 23 24 23 27 29 28 29 29 28 26 25 28 30 31 35 38 40 41 42 41 41 41 38 36 36 37 39 41 43 45 47 48 50 51 53 54 55 55 55 55
15 16 15 25 39 28 31 38 34 30 28 28 28 28 29 31 34 36 34 31 31 31 28 28 31 34 36 37 38 36 37 39 39 40 40 37 36 40 42 43 44 47 50 51 53 54 55 56 58 57 56 55 52 51
19 17 20 22 32 32 27 32 34 38 35 33 34 37 39 41 40 38 35 34 34 35 35 34 34 34 34 35 36 37 38 38 40 40 39 40 43 45 48 51 53 55 58 58 59 57 58 58 56 54 53 55 54 54
23 23 22 23 28 33 31 29 30 31 32 34 37 39 37 42 41 35 33 31 29 29 30 32 33 34 34 34 35 36 37 39 41 42 44 48 49 51 53 55 57 58 58 58 58 58 58 58 57 57 54 54 55 54
28 26 25 22 20 22 24 27 28 28 29 29 29 30 28 27 30 30 30 30 31 33 34 34 33 34 34 36 38 39 41 43 44 47 50 52 53 55 56 56 55 55 56 57 56 54 55 52 53 55 56 57 57 54
34 32 31 30 27 23 24 25 27 28 28 30 30 29 29 29 29 31 31 32 33 34 35 36 37 38 40 42 43 43 44 46 47 49 49 48 49 48 50 51 52 52 52 54 56 57 60 63 61 54 52 52 52 51
37 36 34 33 33 31 30 29 28 29 29 30 30 31 31 31 31 33 35 37 39 40 41 41 41 41 42 42 42 43 44 44 45 45 44 44 43 44 45 47 49 52 53 54 55 55 54 55 54 51 51 51 53 54
19 21 24 28 30 31 30 30 30 32 32 33 33 34 35 36 37 38 39 40 42 43 43 43 44 44 43 42 40 38 36 36 37 38 40 43 46 49 51 52 54 55 56 56 56 55 54 52 52 52 52 55 57 58
12 14 15 16 18 19 20 23 26 26 28 29 31 31 33 34 34 36 37 37 37 36 35 34 33 32 31 32 34 36 38 41 43 45 47 50 52 54 56 56 55 55 54 52 50 48 48 50 52 53 56 58 60 62
12 13 13 14 14 14 16 16 18 19 20 22 24 25 25 26 27 28 29 29 29 29 31 33 34 35 37 39 41 42 45 47 50 53 54 55 56 56 56 55 51 47 45 45 46 48 50 52 53 55 58 61 64 67
11 11 12 13 14 15 16 17 18 20 21 22 23 24 27 28 30 31 32 34 35 35 38 40 42 43 45 47 49 51 53 54 55 55 55 55 53 52 50 45 42 44 45 46 48 50 52 54 57 59 61 65 69 73
17 18 18 19 20 21 22 23 24 25 27 29 31 33 35 37 39 40 42 42 44 46 48 50 52 54 54 55 55 55 55 53 53 51 49 47 44 42 42 43 44 44 46 49 52 54 56 58 61 64 67 71 75 77
25 25 26 26 27 28 29 31 33 34 36 38 39 41 42 43 45 47 49 51 52 54 54 55 54 54 53 52 50 48 47 45 42 39 38 39 42 44 45 45 46 48 51 54 55 56 59 63 67 70 73 76 79 77
27 28 29 30 31 33 35 37 38 40 42 43 44 47 49 50 51 52 53 55 56 56 56 55 52 45 39 36 34 31 33 35 36 39 42 43 43 45 46 48 51 52 53 55 58 61 65 69 71 74 77 75 74 74
30 30 30 32 33 33 34 35 36 37 38 37 35 32 30 29 30 31 32 33 35 36 34 30 25 26 29 30 32 34 34 35 37 39 43 45 46 47 49 51 53 56 58 61 63 66 70 72 73 73 72 70 68 63
28 27 25 25 24 23 19 18 16 14 12 12 15 17 17 17 18 18 19 17 9 13 15 19 24 26 29 31 32 33 35 39 43 46 48 50 51 52 53 55 58 60 63 66 69 70 70 70 68 65 64 61 55 51
12 12 11 9 7 11 13 12 12 13 15 16 17 18 17 18 17 17 17 16 15 18 21 22 24 28 33 36 38 41 44 46 48 50 51 52 53 55 57 60 62 65 67 68 68 67 63 61 60 57 50 47 47 46
6 7 10 13 12 12 13 15 16 17 18 19 19 18 18 19 20 20 20 21 22 23 25 27 30 33 35 38 40 43 45 47 49 51 53 55 58 60 62 64 65 64 62 61 59 58 57 54 47 43 43 44 41 40
9 10 11 13 14 16 17 18 18 19 20 20 21 22 22 23 24 25 26 27 28 29 30 32 33 35 37 39 42 44 47 50 52 54 56 58 59 59 59 58 57 57 56 56 55 53 49 44 41 41 42 40 38 39
18 19 20 21 23 24 25 26 28 29 30 31 31 32 32 32 33 34 34 32 31 30 30 31 34 38 41 43 46 47 49 51 52 54 55 56 56 55 54 54 54 54 53 51 48 45 40 39 39 40 40 39 38 40
22 23 26 28 29 29 29 29 30 31 33 35 37 37 37 38 36 32 29 29 29 31 33 37 41 45 47 48 49 51 52 53 53 54 53 53 53 52 52 51 50 48 47 45 42 40 38 38 38 38 38 38 38 39
30 31 31 30 29 29 30 32 34 34 34 34 34 33 31 29 28 30 32 34 37 40 44 48 52 53 52 52 53 53 53 51 51 50 50 50 50 50 49 49 48 46 45 42 40 38 37 37 37 37 38 38 38 38

GFSWCAN_500_spd_006.txt.gz
Wind_Speed
73 55 56 62 64 59 68 67 64 69 65 60 58 57 51 49 47 47 50 53 55 57 55 55 50 46 44 40 35 30 29 25 22 19 17 16 15 15 15 16 17 18 21 22 25 29 33 34 37 40 42 44 45 47
52 59 67 62 65 76 72 69 62 58 55 53 51 48 46 44 43 44 49 50 51 54 55 53 49 45 42 39 35 34 31 30 27 24 21 22 22 20 21 22 24 25 27 29 31 33 38 42 44 44 45 43 43 42
61 57 63 67 66 63 59 56 53 51 49 47 45 43 42 42 41 43 45 45 47 52 51 49 47 44 40 40 38 36 33 30 29 27 26 26 25 25 26 28 29 30 33 34 36 37 42 45 44 42 41 40 40 40
67 67 65 62 60 57 53 49 47 46 45 43 40 39 40 41 38 38 41 38 42 47 45 46 44 42 40 39 38 35 32 32 31 30 30 29 29 29 31 32 33 32 36 38 41 41 42 39 38 38 39 39 40 40
63 61 57 52 49 46 43 42 41 40 40 38 37 37 38 37 35 35 37 37 37 40 42 41 42 40 38 36 37 36 33 33 34 33 32 33 34 35 35 36 36 36 40 41 39 37 36 35 37 38 40 41 41 43
54 51 50 48 44 40 37 35 38 38 37 38 36 36 36 36 33 36 40 38 38 32 38 40 40 39 39 39 38 36 35 35 36 36 36 36 36 38 40 40 37 35 34 36 36 35 37 40 41 42 43 44 45 46
46 44 43 42 39 37 36 39 38 35 35 33 33 35 33 33 36 44 28 40 38 33 34 35 36 39 39 39 39 38 37 37 37 38 38 38 38 40 40 40 35 30 31 34 38 39 40 42 44 46 47 48 48 49
35 34 35 35 36 34 33 33 35 35 34 32 35 33 32 37 29 38 38 37 38 39 38 37 34 37 38 37 36 37 38 38 39 38 37 36 38 38 38 34 32 34 36 37 38 41 44 47 48 48 48 48 47 49
28 29 33 32 31 34 34 31 31 28 30 31 35 34 36 37 31 40 37 33 37 34 32 35 36 34 35 35 36 37 35 37 38 37 36 36 36 35 35 36 37 39 40 42 43 45 46 46 46 47 47 48 51 53
25 31 30 31 29 33 30 31 28 29 27 26 28 30 34 40 40 35 36 35 36 35 32 29 31 33 33 33 34 35 36 36 36 35 35 36 36 36 37 39 41 42 44 45 45 45 45 45 45 47 50 52 55 58
19 23 24 27 33 35 32 27 25 22 30 33 31 29 29 30 29 27 27 28 30 31 29 28 26 24 24 25 26 30 33 34 36 36 37 36 36 36 38 39 40 41 42 41 40 40 42 45 47 50 53 55 57 59
24 25 27 26 26 25 28 24 22 23 31 28 30 31 27 27 29 30 29 28 27 26 23 20 21 22 22 24 28 32 33 35 37 36 38 39 33 34 35 35 36 36 37 39 42 44 47 51 53 55 56 56 57 58
25 20 24 19 28 26 27 29 17 21 26 27 27 26 24 24 25 24 23 20 19 17 18 21 24 26 29 29 31 32 34 37 39 42 40 34 33 34 37 38 40 41 43 46 49 52 54 55 58 57 57 58 56 55
21 21 20 19 21 31 29 23 24 22 31 27 28 29 29 31 29 24 22 22 24 26 27 27 30 32 33 35 38 40 41 40 39 37 35 33 34 38 40 42 44 48 51 53 55 57 58 58 57 57 56 55 55 55
13 14 14 15 25 36 27 24 24 30 27 28 28 30 32 32 30 28 28 30 32 33 34 36 35 33 31 33 32 34 36 38 36 34 35 38 41 43 46 49 51 52 54 55 55 54 54 55 54 54 55 57 59 60
15 14 14 13 17 26 27 31 26 28 34 37 38 40 36 34 34 35 36 35 36 38 35 32 30 30 31 33 34 33 33 36 36 39 37 41 46 49 51 51 52 52 51 49 48 49 50 53 56 57 59 59 60 58
20 20 21 20 18 18 20 25 28 27 26 27 29 31 31 32 29 28 27 27 28 29 30 31 31 31 32 35 35 37 38 36 36 41 46 50 50 51 51 50 48 46 45 46 50 53 56 58 59 59 60 59 59 56
27 29 32 30 25 23 22 21 23 24 25 26 27 28 29 30 31 33 32 31 31 31 32 33 35 37 39 40 41 42 43 44 46 47 47 48 47 45 42 42 44 46 49 52 55 58 59 60 60 59 57 54 51 50
33 33 31 32 32 30 29 30 28 29 31 31 32 33 34 35 35 35 35 35 35 36 37 37 39 39 40 42 43 44 44 43 41 39 38 38 39 42 44 46 48 52 55 57 58 59 59 58 55 52 49 49 50 52
16 21 25 29 32 32 31 32 32 33 33 33 34 35 36 36 36 37 37 37 38 38 39 39 40 40 40 38 38 36 36 36 37 39 41 42 45 47 50 53 55 57 58 57 57 55 51 48 48 48 49 50 52 55
7 8 9 10 11 14 18 17 21 23 24 26 27 28 29 30 30 31 31 31 31 30 30 31 33 33 33 35 37 38 40 42 44 46 49 51 53 55 56 56 56 55 54 50 47 45 47 48 49 50 52 55 57 59
9 10 11 12 13 14 14 15 16 17 19 20 21 22 23 25 26 28 28 30 31 31 33 35 37 38 40 42 44 46 49 51 53 55 57 57 56 54 53 52 49 46 43 44 47 49 50 51 53 55 58 60 61 64
13 14 15 14 14 15 16 17 18 19 21 23 24 26 28 29 31 33 35 37 39 40 42 44 46 48 50 52 54 55 55 55 56 55 52 51 50 46 43 40 40 42 46 49 50 51 52 55 57 59 61 63 66 69
19 20 21 21 22 23 23 24 25 26 28 30 31 33 34 36 38 41 43 45 46 48 49 50 52 53 55 56 57 55 51 41 38 44 39 36 35 37 40 43 45 47 48 50 52 53 55 57 59 62 64 67 71 74
24 24 25 25 26 27 28 29 31 32 33 35 36 37 39 41 43 46 48 50 51 52 53 54 55 55 53 50 43 31 31 33 35 34 36 38 40 43 44 45 47 49 53 56 58 59 60 62 64 67 69 71 72 70
27 27 26 27 28 28 29 30 32 33 34 35 37 37 38 37 37 34 31 29 29 31 32 33 31 28 28 25 26 30 34 34 37 40 43 43 43 45 47 50 53 56 57 58 59 61 63 65 67 69 69 67 64 62
26 26 26 26 25 24 24 24 23 23 21 19 17 16 14 13 12 14 15 17 18 18 17 16 14 15 18 23 27 31 33 34 36 39 42 45 48 50 53 55 56 58 59 61 62 63 64 65 64 63 61 59 58 55
19 15 13 13 11 11 10 10 10 10 11 13 15 16 16 17 19 20 21 22 23 22 21 21 22 25 27 29 31 34 38 41 43 46 48 49 50 52 54 56 58 60 60 60 61 61 60 59 57 57 56 55 50 44
6 7 8 9 9 9 10 11 12 14 16 17 18 19 20 20 22 22 23 23 24 25 26 27 29 30 32 34 35 37 38 40 42 44 46 49 51 53 54 56 57 58 59 60 59 57 55 54 54 53 51 47 43 40
6 8 10 12 14 17 19 20 22 23 24 25 27 28 30 31 32 32 32 33 33 34 35 36 35 34 33 34 34 36 38 41 44 47 50 52 53 55 57 58 58 58 57 55 53 52 52 51 51 49 46 42 39 38
16 18 21 23 24 24 25 27 28 29 31 33 34 34 35 36 37 38 39 40 40 39 37 35 34 35 36 38 41 44 47 51 54 56 57 58 59 59 59 57 55 54 53 52 51 51 51 50 48 45 41 39 37 36
24 26 27 27 29 30 30 31 30 30 30 31 32 35 37 38 38 38 37 37 35 34 34 36 38 41 44 47 51 54 57 60 61 61 61 61 60 58 56 55 54 53 52 52 52 50 48 45 42 40 39 37 36 36
27 28 28 28 29 30 31 32 32 31 32 32 30 28 27 26 25 25 27 29 33 36 39 43 47 50 53 56 59 61 62 62 63 62 61 60 59 58 57 56 55 54 52 50 47 44 42 41 41 39 38 38 37 37

GFSWCAN_500_spd_009.txt.gz
Wind_Speed
43 40 38 37 38 45 58 87 77 61 70 81 72 75 80 76 69 65 64 66 58 57 58 58 59 55 54 52 45 38 35 33 28 22 18 14 10 10 9 9 11 12 14 16 19 22 26 27 30 32 35 38 42 44
69 60 50 58 81 66 76 66 54 79 75 73 71 71 70 67 61 61 57 58 53 57 56 57 59 55 55 51 44 41 37 33 31 29 24 20 18 15 16 17 17 19 21 23 24 28 31 33 35 38 40 43 45 46
64 63 63 49 54 46 57 65 63 60 65 69 71 67 62 58 54 54 50 52 53 59 54 57 58 55 52 51 47 43 40 35 33 31 29 26 23 22 22 23 23 25 27 28 29 32 35 38 40 42 44 44 43 43
53 53 50 49 51 55 59 61 70 64 61 62 60 56 53 51 49 45 45 48 50 51 54 55 54 52 50 49 47 46 40 37 36 36 33 30 28 28 27 29 29 30 32 33 34 35 40 40 42 43 43 43 41 42
56 56 54 57 58 62 62 63 64 60 55 53 50 48 46 45 46 40 41 44 45 48 48 47 49 49 47 46 45 44 41 40 39 37 34 33 32 32 33 34 34 35 36 36 38 40 40 42 42 40 40 42 44 45
53 57 56 56 54 53 54 53 51 49 47 46 45 43 43 43 44 42 35 37 39 42 42 46 47 46 46 45 43 41 39 38 38 36 36 36 35 37 37 38 39 38 39 40 40 40 39 39 41 42 44 44 45 47
55 55 53 52 50 48 46 45 45 44 43 43 43 42 41 39 37 35 31 33 35 36 40 39 41 44 42 40 39 38 37 37 37 38 38 38 40 40 41 42 42 39 38 39 37 37 41 41 45 46 46 48 49 49
47 47 46 46 44 42 42 43 42 41 40 40 39 39 38 36 33 31 33 35 34 34 34 38 41 41 41 40 40 38 38 38 39 40 39 40 41 42 45 43 40 37 36 37 38 41 43 45 47 48 49 49 48 47
38 35 37 37 39 37 38 38 37 38 37 36 35 35 36 37 34 44 43 36 33 37 38 33 37 39 40 40 38 38 40 41 41 40 41 41 41 43 40 39 37 37 39 42 43 44 45 47 48 47 46 45 45 47
29 33 31 32 31 32 34 33 32 32 33 36 37 37 36 38 40 42 32 47 46 26 31 32 32 32 33 35 37 39 40 40 41 42 42 44 45 42 36 35 38 40 43 45 46 47 45 44 42 41 43 46 48 52
31 29 28 26 25 25 27 28 29 30 34 35 34 35 37 37 34 43 32 39 45 44 40 36 36 35 35 36 36 39 41 43 44 45 46 46 44 35 35 36 39 43 46 45 43 41 40 40 43 44 47 51 54 57
27 26 29 28 32 23 23 22 24 23 27 37 34 37 38 36 35 44 47 43 40 39 37 37 34 32 32 34 38 40 42 41 44 42 41 42 39 36 37 38 40 43 43 41 40 41 43 44 47 51 54 56 57 58
24 25 27 33 29 23 25 22 22 25 27 25 29 33 34 33 33 35 41 38 33 28 27 26 26 28 29 30 31 32 35 37 38 41 41 40 37 38 40 42 42 41 40 40 41 43 46 50 53 55 56 56 56 53
22 24 28 30 31 29 22 28 19 18 21 28 24 32 32 27 24 27 29 23 20 21 23 23 24 25 26 29 32 34 38 39 42 42 42 40 38 38 39 40 39 41 42 44 46 49 52 54 55 54 52 49 50 54
24 21 23 20 23 26 25 25 25 18 16 25 29 33 30 29 24 23 21 21 21 21 23 25 27 29 30 34 36 38 41 43 42 40 36 36 37 38 38 42 45 46 47 49 54 55 54 54 51 48 50 53 56 59
19 20 19 19 19 21 27 28 23 24 25 28 28 31 27 27 31 29 28 27 27 29 31 33 34 35 36 37 39 40 40 40 37 37 37 37 38 42 46 45 47 49 52 56 55 55 52 50 50 53 55 59 61 63
16 17 16 13 11 16 28 29 28 26 24 24 27 28 30 29 29 30 34 35 35 35 36 37 36 34 36 36 36 36 37 35 35 37 40 45 45 43 44 48 53 57 57 56 52 50 51 53 55 58 62 63 64 64
18 18 18 18 19 17 19 28 25 28 28 26 25 28 33 36 37 38 36 33 33 31 29 29 29 27 31 32 33 33 35 39 43 48 48 49 50 52 53 53 53 51 49 50 51 53 55 58 61 63 63 64 63 60
20 21 21 21 20 21 22 23 22 23 24 26 26 30 33 33 33 32 32 32 32 33 34 34 35 35 37 40 42 44 46 48 48 48 48 48 48 47 47 47 48 50 52 54 56 59 61 63 62 62 60 58 55 55
23 24 24 25 27 28 25 36 34 33 32 35 36 35 39 39 40 41 40 41 41 41 41 41 41 42 43 43 43 43 43 44 44 43 43 44 45 46 48 50 53 56 59 60 61 62 61 59 56 53 52 52 53 55
7 9 12 17 19 23 24 24 27 29 30 32 34 34 34 35 35 35 35 34 34 34 34 35 35 36 37 37 38 38 39 40 41 43 45 47 50 52 55 58 60 61 60 59 58 55 51 49 48 50 52 52 53 55
2 4 5 7 8 9 12 14 15 16 19 20 21 23 23 24 25 27 27 29 29 29 30 31 33 34 35 37 39 41 43 46 48 50 53 55 57 59 59 60 58 54 51 48 45 43 44 48 51 51 53 57 60 62
7 8 9 11 12 13 12 14 16 17 18 19 20 22 23 24 26 27 29 31 32 34 35 37 40 42 44 45 48 50 52 53 54 56 57 57 55 52 47 47 47 43 41 41 45 51 52 52 53 57 60 63 64 64
11 12 11 14 18 21 22 23 23 24 25 26 26 28 29 31 33 35 37 38 40 42 44 46 47 49 51 52 54 55 56 57 57 56 45 39 43 43 45 47 45 46 48 51 52 53 55 57 59 62 64 65 66 68
18 19 20 19 20 21 23 28 30 31 32 32 33 34 34 36 38 39 41 43 45 46 48 50 51 52 53 53 52 51 47 42 32 29 35 42 47 47 50 47 47 51 54 55 57 58 60 61 63 65 66 67 68 67
24 24 24 24 25 24 25 25 26 27 29 31 32 33 35 36 37 38 39 39 37 36 35 34 32 31 30 29 28 29 30 32 34 35 39 42 46 47 47 47 49 52 56 57 58 60 63 64 65 67 67 66 65 63
28 27 27 26 24 23 22 22 23 23 24 24 24 23 23 22 21 22 22 21 21 21 23 24 25 26 26 26 25 25 26 29 31 34 37 41 44 46 49 52 55 55 56 57 59 60 62 63 64 64 64 62 60 58
24 23 20 17 14 14 13 14 14 13 13 13 15 16 17 18 19 20 21 22 24 26 27 29 29 29 29 29 30 32 34 36 38 41 43 45 47 48 49 50 52 54 57 58 60 61 62 63 63 61 58 56 54 54
11 10 10 10 11 11 11 11 11 13 15 17 19 21 23 25 27 28 30 31 34 35 36 36 37 37 38 39 40 41 42 43 44 45 46 47 48 49 52 55 58 61 63 65 65 65 64 63 60 57 54 53 52 52
8 9 10 11 12 14 17 19 21 22 24 25 27 29 31 32 34 36 37 39 39 40 40 41 42 43 43 42 42 42 42 44 45 47 49 51 54 58 61 64 67 68 69 69 68 65 62 59 56 54 53 52 50 47
13 15 18 19 22 24 26 28 29 30 31 32 34 35 36 36 37 37 37 38 40 41 41 42 42 42 41 41 42 43 45 48 51 54 57 60 63 66 68 69 69 69 66 64 61 59 57 55 53 51 49 47 44 42
22 25 26 28 28 29 30 30 30 31 32 33 34 34 34 34 35 35 33 31 30 29 29 30 32 36 39 42 45 49 52 55 59 62 65 66 67 67 66 63 57 52 49 48 47 46 45 44 43 41 40 40 40 40
24 26 27 27 29 31 32 34 34 33 32 31 31 30 29 28 27 26 25 26 29 32 35 39 42 45 48 52 54 57 60 61 62 62 62 61 59 55 51 48 47 47 47 46 45 44 42 40 40 40 40 40 40 39

GFSWCAN_500_spd_012.txt.gz
Wind_Speed
29 30 31 32 34 38 40 39 43 45 57 93 100 93 92 89 84 81 67 48 54 58 48 53 56 53 59 58 48 47 45 40 34 28 23 18 14 12 8 9 9 9 10 11 13 15 18 20 22 25 28 31 34 37
24 29 31 32 34 37 36 38 43 51 78 101 87 86 87 80 79 72 77 53 36 43 56 56 55 58 61 54 50 49 44 39 34 31 29 22 19 17 13 13 13 15 14 16 17 22 23 25 26 29 31 34 38 41
37 36 37 35 33 35 37 41 51 72 97 103 75 84 78 75 67 62 71 62 20 41 52 57 56 55 58 56 53 52 48 43 40 38 31 30 25 23 20 20 21 20 21 22 23 26 30 32 31 34 38 38 41 42
46 43 46 41 34 41 53 62 72 91 79 62 66 75 74 72 76 45 58 71 72 53 45 48 54 55 56 55 51 50 47 42 35 37 37 35 31 29 26 28 27 28 27 29 29 31 35 38 40 40 40 42 43 43
53 59 57 52 68 73 68 65 61 52 54 60 68 68 67 69 70 51 41 51 59 55 54 52 52 52 54 54 52 53 52 46 43 41 41 38 34 31 31 32 33 33 34 34 35 38 37 42 43 43 44 45 43 42
48 42 42 38 47 57 46 52 55 57 59 60 67 66 63 65 59 57 54 38 47 50 49 49 50 50 50 52 51 49 48 48 47 45 44 40 37 36 36 36 37 37 37 39 41 42 44 46 45 44 45 44 45 46
44 47 49 45 45 52 51 52 51 54 59 57 61 63 60 57 51 45 36 31 39 45 40 42 45 47 47 50 48 48 47 45 48 46 45 42 41 41 39 40 41 40 42 42 44 44 48 46 47 47 45 46 48 49
48 46 44 39 41 45 49 52 52 52 54 53 50 48 47 45 41 38 30 27 33 34 36 37 41 44 45 47 48 45 42 43 45 43 43 43 43 42 43 43 44 43 45 44 43 43 46 48 47 47 48 49 50 50
42 46 46 45 44 42 41 44 48 48 47 46 46 46 45 42 39 35 29 26 28 31 29 33 35 37 41 42 43 43 42 41 41 41 43 43 43 45 45 44 45 44 43 45 45 46 46 46 47 48 50 49 46 43
38 39 41 41 41 41 42 42 43 43 42 42 41 40 39 39 36 34 32 32 31 30 32 34 30 35 37 40 41 40 40 42 43 41 43 45 45 45 45 45 43 43 44 46 47 48 48 48 48 47 46 44 44 47
28 30 31 32 33 36 40 41 41 41 41 40 38 39 36 37 37 36 35 33 30 36 29 35 34 33 36 36 38 39 39 41 44 45 46 47 47 44 44 43 42 43 44 47 49 50 50 50 49 47 45 46 48 51
22 18 23 25 31 31 30 32 31 31 33 35 32 34 35 37 31 36 43 36 24 28 33 43 40 33 33 32 35 37 41 44 46 45 45 46 44 43 43 39 40 43 45 47 49 50 50 49 47 45 46 49 52 57
30 25 27 19 16 23 23 27 28 30 30 30 33 31 31 32 34 45 40 36 40 38 33 29 28 28 28 30 33 37 41 43 44 45 47 49 43 40 39 41 43 45 47 49 49 46 44 44 45 47 50 53 58 60
21 19 20 23 16 16 19 20 17 20 24 29 32 32 35 36 35 39 40 37 32 36 35 34 34 34 35 35 36 36 39 41 43 44 43 39 39 42 43 45 46 46 46 45 44 44 47 48 50 53 56 58 61 59
16 18 17 21 15 24 21 15 14 18 21 22 23 29 33 33 33 27 26 30 38 31 29 34 35 34 31 33 33 34 36 37 38 39 39 41 42 43 43 43 44 43 43 44 47 50 50 52 55 58 59 59 55 55
13 14 15 19 19 23 15 23 22 16 12 12 20 21 24 28 25 22 22 21 23 24 23 24 23 25 28 30 32 34 37 40 41 40 42 42 41 40 40 39 39 45 47 51 51 53 56 59 59 59 57 56 58 61
19 16 16 18 18 19 20 20 22 25 23 21 21 21 24 28 30 29 27 25 25 26 29 28 27 30 35 38 40 42 42 40 41 41 39 39 38 41 42 43 46 51 53 53 56 60 61 59 57 57 58 61 63 66
15 17 18 20 20 20 20 22 26 25 21 23 24 25 24 24 27 30 27 26 25 29 32 36 37 39 40 40 38 35 35 35 38 39 41 42 42 43 44 48 55 56 57 60 57 56 56 57 59 62 64 67 69 69
19 19 19 20 20 19 19 19 24 27 28 28 27 28 25 25 26 29 30 32 34 36 38 40 40 39 38 39 38 39 41 42 42 43 43 46 50 53 56 58 57 55 53 54 55 57 60 62 65 67 68 68 66 63
20 19 19 21 23 24 23 24 21 25 28 28 27 28 29 30 30 31 33 35 37 37 36 36 37 41 43 44 44 46 47 48 48 49 50 52 52 50 50 50 51 53 55 58 61 63 65 67 68 66 62 59 55 53
14 17 20 21 21 22 24 27 24 24 29 36 38 37 39 40 38 38 40 41 40 42 44 46 44 46 47 48 48 48 46 45 44 44 44 45 47 48 51 54 56 58 61 64 65 67 66 63 58 55 51 50 52 55
3 2 3 7 8 12 14 19 20 21 22 24 26 27 27 29 31 32 32 33 34 32 33 34 34 35 36 36 37 38 39 41 44 46 48 50 53 55 57 60 62 63 64 64 60 57 53 50 50 50 52 56 59 61
8 9 9 8 8 9 8 9 11 12 14 16 17 18 19 21 22 24 26 27 28 29 31 32 34 36 37 39 41 43 46 48 50 53 55 57 58 59 60 61 59 57 52 51 50 49 51 53 52 55 57 60 62 64
12 11 12 13 14 13 14 16 18 20 21 22 22 23 24 25 27 28 30 31 33 35 37 39 41 43 44 47 48 50 51 53 55 56 57 57 57 56 52 44 45 51 49 49 50 52 54 57 57 58 61 63 65 66
17 18 19 21 25 23 22 23 22 21 23 27 30 32 33 34 35 36 37 39 40 41 42 44 46 47 48 49 50 51 50 49 47 45 42 41 39 36 37 39 44 50 53 55 58 58 59 61 61 62 64 64 65 67
23 25 25 27 26 24 24 26 26 26 26 28 29 31 32 33 35 35 37 38 38 39 39 39 38 37 36 36 35 33 32 31 30 30 31 32 34 39 44 47 50 53 56 58 59 60 61 61 62 63 65 68 70 72
27 28 26 25 25 26 27 27 26 26 25 25 25 25 26 27 27 27 27 27 27 26 27 27 27 28 30 31 32 34 35 35 35 36 37 39 41 43 46 48 51 54 56 58 59 60 61 63 65 68 71 74 76 76
29 30 29 26 22 20 18 18 18 18 18 18 17 18 18 19 20 21 22 23 24 26 29 32 34 35 37 39 40 41 42 43 44 45 46 48 49 51 52 53 54 56 57 59 61 62 65 68 71 73 75 76 72 67
26 21 17 15 14 13 14 14 14 14 16 17 19 21 23 25 27 28 31 32 34 36 37 39 41 42 43 44 44 45 46 47 48 49 50 51 51 51 53 54 56 59 61 63 66 68 71 73 74 73 65 57 54 53
14 14 13 14 14 15 17 18 20 22 24 26 28 30 32 34 35 36 38 39 41 42 42 42 42 42 42 43 44 45 45 45 45 46 47 49 51 53 55 58 61 64 67 69 72 73 72 69 62 52 49 49 48 46
15 16 18 20 22 24 26 29 31 33 34 35 36 36 36 36 37 38 39 39 40 39 40 40 39 36 35 34 34 36 40 44 46 50 53 55 58 61 64 66 68 69 69 69 67 64 58 53 50 49 49 50 49 47
24 25 26 28 28 29 30 30 31 32 33 34 36 37 38 38 37 37 37 37 36 35 34 32 32 33 35 39 43 47 50 53 56 58 61 63 64 65 65 64 64 62 61 59 56 54 52 51 51 52 52 51 50 48
23 24 25 26 27 28 29 30 30 31 32 32 31 31 32 31 31 31 31 31 30 29 30 33 37 40 45 48 51 54 57 59 59 60 60 60 61 61 60 60 60 59 58 57 57 56 56 55 55 54 52 51 50 48

GFSWCAN_500_spd_015.txt.gz
Wind_Speed
34 38 35 33 32 31 31 26 25 35 37 36 69 91 100 97 90 83 80 78 62 45 39 45 51 51 49 51 51 52 44 49 42 35 31 26 22 17 14 13 11 9 9 10 11 12 13 14 15 18 21 23 25 29
30 30 30 29 30 29 32 28 31 35 28 43 60 90 99 94 88 85 76 76 57 50 43 41 51 45 51 52 53 52 39 35 41 37 33 29 23 20 16 14 12 11 10 11 13 13 16 16 18 20 23 26 29 33
19 20 22 28 27 31 33 32 32 37 34 43 68 95 98 89 81 78 67 68 54 47 41 51 55 51 52 51 45 49 54 49 46 41 37 32 30 25 21 19 17 15 15 15 16 19 20 22 25 27 29 31 34 38
20 19 23 26 29 31 33 32 29 36 37 55 81 99 93 85 77 73 67 59 52 53 29 64 57 60 58 53 51 53 53 48 47 46 41 37 34 30 26 26 24 22 22 23 23 26 29 31 33 35 37 39 40 42
29 23 24 26 29 31 32 31 36 44 60 77 98 95 82 85 78 66 57 33 39 46 45 53 62 64 56 50 51 42 46 47 47 45 43 42 39 35 32 32 30 30 30 29 31 31 33 35 37 40 42 44 45 46
54 45 32 33 33 33 36 39 50 70 78 94 91 85 84 75 70 57 40 36 32 56 44 57 46 48 43 39 43 45 47 44 47 49 49 46 41 38 37 36 34 34 35 35 37 38 38 40 42 43 45 46 46 46
58 60 65 57 47 50 53 66 72 81 85 81 76 77 74 71 72 52 40 22 27 49 45 40 37 44 46 42 42 46 48 50 49 51 51 47 43 41 42 40 38 39 39 40 42 43 43 44 45 46 47 47 48 47
56 53 57 60 68 73 78 75 70 72 75 70 73 71 63 48 40 44 44 39 24 32 48 43 34 35 36 38 40 42 46 48 49 50 52 50 47 47 47 46 44 42 42 43 42 44 47 48 48 48 50 49 48 49
52 53 51 52 54 55 57 53 57 58 60 66 67 60 69 30 22 32 42 25 15 19 28 38 36 33 34 36 38 38 41 45 48 47 47 47 48 49 49 45 45 47 46 45 44 45 46 48 51 53 52 50 50 51
41 47 43 46 51 52 51 49 50 57 57 58 57 53 45 64 43 29 24 20 18 20 22 30 33 30 29 32 35 37 40 43 47 46 44 45 46 45 45 45 46 45 46 46 46 47 49 51 52 51 50 50 52 53
33 35 35 41 46 49 49 53 57 58 48 49 43 39 43 44 35 27 29 22 16 14 24 26 27 26 26 29 31 35 39 42 44 44 44 45 45 45 43 42 42 47 48 47 47 49 50 50 51 52 53 55 54 52
29 32 37 38 40 44 46 47 49 49 45 44 44 42 41 38 36 37 32 28 29 25 26 29 25 26 26 28 30 34 37 39 40 42 43 45 42 42 45 50 51 47 45 45 46 48 49 50 52 54 54 52 49 49
25 25 26 32 33 32 34 35 39 39 37 38 38 35 34 34 32 38 38 33 29 27 27 34 24 18 27 25 25 31 35 37 40 43 45 42 40 42 44 44 43 42 40 43 46 49 52 54 54 53 50 49 51 54
22 24 26 25 26 28 29 28 28 28 29 32 34 34 38 37 38 38 33 30 29 22 16 19 30 33 29 27 29 32 40 42 38 40 36 37 36 39 40 39 38 40 43 47 49 51 52 50 48 47 49 53 56 59
14 15 14 17 24 23 25 25 26 27 25 26 26 28 32 33 31 31 27 27 36 26 21 25 28 30 33 31 31 30 32 35 37 38 36 33 33 35 38 40 43 46 48 46 47 48 47 47 48 51 54 57 60 61
10 8 12 12 14 16 15 13 14 18 16 22 23 28 25 28 25 28 18 20 27 21 24 28 30 31 33 33 33 34 34 36 35 32 32 35 40 43 46 46 46 44 43 46 48 49 51 52 53 55 58 60 59 59
8 11 12 14 11 13 13 14 15 12 12 12 14 16 20 23 25 26 28 29 25 23 24 25 23 26 29 29 24 26 30 34 36 38 40 45 48 48 48 45 45 47 49 50 51 53 54 55 57 59 59 59 60 61
8 8 6 8 12 11 15 13 13 16 18 17 16 16 18 23 20 19 26 26 23 25 24 26 27 29 33 35 33 33 36 39 43 47 50 50 47 45 46 48 51 51 51 51 53 55 57 58 58 59 60 61 63 66
8 9 11 12 12 13 13 15 16 18 22 23 23 24 24 24 23 23 23 25 27 27 27 28 30 34 36 38 41 43 43 44 45 46 47 46 48 49 49 49 50 52 54 54 54 55 56 57 59 62 64 67 70 70
13 15 15 15 16 18 18 18 19 20 23 25 27 28 28 28 29 30 30 30 31 31 32 33 35 37 38 39 40 41 43 45 48 49 51 50 50 50 52 53 54 53 52 53 55 56 59 63 65 67 68 68 66 63
15 15 15 18 19 21 23 23 23 23 23 25 28 29 30 30 31 32 33 34 34 35 36 37 39 41 43 44 44 46 48 50 50 50 51 50 49 48 48 48 49 51 54 58 60 63 66 67 67 66 62 59 56 55
6 8 10 13 14 17 20 22 23 24 25 25 25 29 34 35 37 37 38 39 39 41 42 44 45 46 46 46 46 45 44 42 41 41 42 43 45 47 50 53 56 58 60 63 65 66 67 67 65 62 58 55 56 57
6 4 4 5 2 4 5 9 12 15 17 19 22 23 25 27 28 29 29 29 29 30 29 30 30 31 32 34 35 36 38 40 42 44 47 50 52 55 56 58 61 61 62 62 61 57 53 55 58 61 59 57 61 65
8 9 11 11 11 11 14 17 16 16 16 17 18 20 21 22 23 25 26 27 28 30 31 33 34 36 38 40 41 43 45 47 49 50 52 53 54 54 54 54 54 53 52 50 48 47 49 53 57 59 62 66 67 67
15 17 16 18 16 16 19 21 23 25 23 24 25 26 27 28 31 32 33 35 36 37 38 39 41 42 43 44 45 46 46 46 46 45 44 43 42 41 40 40 41 41 43 45 47 50 53 56 59 62 64 65 66 66
24 24 23 23 22 24 27 31 30 26 26 28 30 30 31 32 32 32 33 35 36 36 37 38 38 38 38 38 37 36 35 35 36 36 37 38 40 41 42 43 45 47 49 51 54 56 59 61 62 64 64 64 66 67
25 25 25 26 28 31 31 32 31 28 27 28 28 27 27 26 27 27 27 27 27 27 27 27 27 28 29 30 32 35 37 39 41 43 44 46 47 49 50 51 52 54 55 57 59 60 60 61 61 63 65 67 69 70
25 27 30 33 31 27 24 24 25 24 22 21 20 19 19 20 21 21 22 23 24 26 28 30 32 35 37 39 41 44 46 47 48 49 49 49 51 53 53 54 55 56 56 57 57 58 60 62 64 66 68 71 73 74
30 33 29 25 23 21 19 19 18 17 18 18 19 20 22 24 26 27 29 31 34 36 38 40 42 43 45 47 48 48 48 48 48 49 49 48 47 46 46 48 50 53 57 59 62 64 66 68 70 72 72 70 67 64
25 21 19 18 18 19 20 21 22 23 24 25 27 30 32 35 36 37 38 40 40 41 42 43 44 44 44 45 46 47 47 46 45 43 42 44 47 50 53 57 60 63 65 67 69 70 70 69 68 66 64 62 59 56
19 19 21 23 25 26 28 29 31 32 34 35 36 37 37 37 38 39 39 41 42 42 43 43 43 43 43 43 42 42 42 42 43 46 50 54 57 60 64 66 68 69 69 68 68 68 67 66 65 63 62 60 57 56
22 23 24 24 24 25 25 27 29 30 30 31 33 34 35 36 38 38 37 37 37 37 37 37 38 39 39 38 38 40 43 47 51 55 59 63 66 68 68 68 68 68 67 67 66 65 64 63 61 60 58 57 55 54
22 22 23 24 25 26 27 28 27 27 27 28 28 29 30 29 29 29 29 30 31 33 33 34 35 37 39 42 45 49 53 56 59 62 63 63 64 64 64 64 63 63 62 61 61 59 58 57 55 54 52 51 50 49

GFSWCAN_500_spd_018.txt.gz
Wind_Speed
30 33 36 37 38 40 38 41 43 45 46 45 42 41 46 70 92 97 89 84 70 64 69 65 56 54 54 55 53 50 49 50 50 49 45 40 35 31 29 22 22 19 18 17 18 18 16 16 17 20 19 20 20 21
27 31 32 34 34 34 36 36 35 34 34 35 38 40 51 74 92 94 87 83 79 64 50 51 57 52 53 51 54 52 48 45 42 48 45 39 36 32 26 22 21 16 14 13 13 11 13 14 13 14 15 17 21 25
21 24 26 30 33 29 26 26 25 25 32 36 42 48 62 82 94 91 80 80 75 53 44 37 35 54 55 53 50 50 46 43 48 56 43 35 30 31 28 25 24 18 16 15 14 13 15 15 16 18 21 24 28 31
22 24 23 22 22 23 25 25 17 21 33 39 56 59 66 88 90 86 78 76 68 49 44 38 36 47 53 55 53 51 47 43 47 44 44 43 37 35 32 30 27 23 22 19 19 19 22 24 26 27 29 31 33 36
19 20 22 23 23 28 27 22 21 28 36 46 42 57 81 92 88 78 67 69 69 51 45 37 36 45 51 53 46 47 45 48 45 36 45 47 43 38 36 35 32 29 28 26 25 27 29 30 32 35 37 39 41 43
24 25 25 25 30 34 32 25 26 27 30 46 59 77 89 89 86 75 66 57 63 55 42 35 43 42 50 50 49 51 41 44 45 52 43 41 43 44 43 41 36 35 34 33 31 32 33 34 36 38 41 43 44 46
23 25 27 29 28 27 28 24 29 33 52 68 82 91 89 84 54 52 56 47 45 45 37 33 44 48 48 47 46 48 42 38 49 50 46 45 46 48 48 45 41 40 39 38 37 37 38 39 41 43 45 46 47 48
36 27 27 29 28 26 28 32 40 54 69 84 93 88 83 68 62 52 39 31 38 44 36 50 43 52 53 57 56 46 40 43 39 38 42 46 46 48 50 49 46 45 43 42 43 44 45 45 46 47 48 49 49 50
67 55 41 34 32 33 38 44 59 71 82 83 81 82 77 68 57 47 30 38 26 32 43 48 51 45 47 45 41 43 37 38 42 44 44 45 44 47 49 49 48 47 47 48 48 48 47 47 48 48 50 52 52 53
56 57 60 62 62 58 57 62 68 73 78 82 77 71 66 57 33 35 31 28 29 26 27 37 52 52 36 37 37 42 37 36 37 40 42 45 49 47 47 47 48 47 46 47 48 48 48 49 48 52 54 53 54 54
55 56 52 55 59 61 60 66 73 70 71 64 64 71 56 33 26 27 33 32 15 13 17 23 33 40 36 32 29 30 32 35 38 40 40 42 45 45 44 45 45 45 46 46 45 46 46 47 52 55 53 53 53 54
44 46 50 49 51 50 56 64 65 62 61 61 54 56 37 34 24 26 29 34 21 12 13 16 21 28 30 31 32 32 35 37 38 39 40 42 40 40 40 41 41 45 48 45 47 52 54 55 52 50 51 53 55 56
34 38 43 47 48 50 48 44 46 53 43 51 51 47 25 28 19 18 20 16 15 10 9 14 21 24 25 24 26 28 32 33 34 35 38 37 36 37 40 43 44 45 47 49 51 51 47 46 49 52 54 56 55 53
31 33 35 37 40 40 37 40 44 45 40 31 29 27 27 24 24 24 22 22 19 16 16 17 24 19 21 24 27 29 27 28 31 34 34 32 34 37 41 42 46 47 46 43 41 44 47 50 54 56 55 54 53 54
27 30 32 30 27 29 30 29 30 30 31 30 28 27 29 28 31 30 23 20 20 18 14 13 16 26 29 24 18 24 24 27 30 30 29 35 38 39 36 36 37 34 36 41 45 49 51 54 53 52 54 55 56 58
21 25 27 19 21 20 20 22 21 21 24 26 30 27 24 24 25 21 21 19 19 17 14 23 19 22 23 30 34 32 31 31 27 29 30 31 31 29 28 32 35 39 43 48 50 51 52 52 53 55 56 58 60 63
13 16 16 17 22 23 21 19 20 19 20 20 20 20 20 19 22 23 21 16 14 11 15 28 27 24 23 25 28 29 29 30 29 27 28 30 33 35 38 42 45 49 53 53 52 52 53 55 57 59 60 61 61 60
10 10 12 14 16 16 18 17 16 15 13 11 12 13 13 17 20 18 19 19 22 23 23 23 21 20 22 23 23 24 27 29 31 33 35 36 39 42 45 49 53 54 53 54 55 55 57 58 59 60 60 58 59 59
9 9 10 10 11 12 11 12 15 15 13 13 13 15 14 14 13 14 19 21 21 22 26 26 25 24 25 27 31 35 39 41 42 46 45 46 48 49 50 51 52 54 56 56 56 57 57 57 56 58 58 59 61 63
3 3 4 6 8 10 12 13 15 17 17 18 19 21 22 22 25 27 27 26 26 26 26 29 31 32 35 37 40 42 44 47 48 48 48 49 50 51 52 53 54 54 55 53 52 52 54 56 58 61 63 65 66 67
10 10 11 11 11 11 12 13 15 18 19 23 26 27 27 30 32 33 33 33 34 34 35 37 38 40 42 43 45 46 49 50 50 50 51 51 53 54 54 54 52 49 48 50 52 56 59 61 63 65 66 66 66 65
8 10 12 13 15 16 17 18 20 22 23 26 27 30 32 32 32 33 35 36 37 38 39 41 42 43 45 46 47 48 50 51 52 52 51 49 46 46 46 48 50 52 53 55 58 61 63 62 62 62 61 60 57 55
3 1 2 4 6 9 8 10 12 15 16 21 25 27 30 33 35 37 39 41 43 43 43 44 45 46 46 45 44 42 41 39 39 39 41 43 45 47 49 51 53 55 56 56 55 55 56 57 56 54 53 52 53 56
4 5 6 7 7 6 8 6 6 8 10 13 15 18 21 24 26 29 30 31 32 32 33 34 34 35 36 37 38 39 41 43 44 46 47 48 49 50 50 50 50 49 49 49 49 50 51 51 52 54 56 58 59 61
4 5 6 9 10 12 13 16 17 19 23 24 26 26 25 26 30 31 32 34 35 36 37 38 39 40 41 42 43 44 45 46 46 46 45 45 43 43 43 43 44 46 48 49 51 53 55 56 58 60 61 63 65 67
15 16 17 16 15 15 19 22 22 24 25 25 28 29 31 33 34 34 34 35 36 37 38 38 38 38 38 38 38 38 38 37 37 37 38 39 42 44 47 49 51 53 55 56 57 58 59 61 62 63 64 64 63 64
20 21 19 19 21 24 25 26 28 29 30 31 30 29 29 29 30 28 28 28 27 28 28 28 29 29 30 31 32 33 35 37 40 43 45 47 50 52 54 55 57 57 58 59 60 61 60 59 57 57 60 63 66 68
21 21 22 24 28 29 29 30 30 29 27 26 25 23 23 22 21 21 22 23 24 25 27 28 31 33 35 37 40 42 45 47 49 51 53 55 55 56 56 57 58 58 59 58 56 55 57 61 64 67 70 72 74 74
23 25 27 28 27 28 29 28 25 23 22 22 22 22 23 24 26 27 28 30 32 35 37 39 41 43 45 46 47 48 49 49 50 52 53 54 55 56 56 56 56 55 56 58 61 64 67 70 73 75 76 75 74 74
27 24 23 25 25 24 24 24 25 26 28 30 31 32 34 35 36 37 38 39 40 42 43 43 43 44 45 47 48 49 50 50 50 51 51 51 52 52 53 55 57 60 63 67 71 74 76 77 77 76 75 73 71 68
21 22 23 24 25 26 26 25 25 25 26 28 30 32 34 36 38 38 38 38 39 40 41 41 41 41 41 41 42 43 44 45 46 47 48 50 53 56 60 63 66 70 72 74 75 75 74 73 72 71 69 68 66 63
20 20 21 22 22 22 23 24 26 25 26 28 29 30 31 31 31 32 32 32 32 33 33 33 33 35 36 38 39 40 42 45 48 51 54 58 61 64 66 68 69 70 70 69 68 66 65 63 62 61 60 59 57 55
21 22 23 25 26 25 26 25 26 29 29 30 29 27 26 26 26 26 27 27 28 29 30 32 34 35 37 39 41 44 46 49 51 53 55 56 56 56 56 55 54 53 52 52 51 51 51 51 51 51 50 49 48 47

GFSWCAN_500_spd_021.txt.gz
Wind_Speed
35 37 40 42 41 43 45 46 49 50 52 50 49 46 44 42 37 49 74 92 85 78 71 68 65 60 54 57 56 58 62 60 55 51 47 49 47 41 41 36 30 30 31 31 30 30 26 20 25 23 20 20 21 22
30 30 31 37 35 36 38 42 45 47 48 50 48 45 43 42 40 47 68 87 86 81 73 68 63 58 54 55 56 58 61 56 50 48 49 45 45 41 38 36 32 31 28 26 26 22 20 17 14 14 13 14 17 20
24 26 28 30 30 32 34 38 41 44 47 47 45 43 43 44 40 46 67 82 87 82 72 68 64 65 54 56 59 61 57 54 51 46 47 47 43 40 37 33 31 30 28 26 24 18 16 13 13 14 15 17 19 21
19 22 23 26 27 30 30 32 36 39 41 43 41 39 40 40 37 51 69 81 84 77 69 62 51 44 56 55 58 59 56 54 51 47 48 46 41 38 36 32 33 30 28 26 24 19 20 18 18 19 20 22 24 26
18 20 21 22 24 26 26 27 29 32 36 38 40 39 41 43 46 60 75 79 77 60 63 48 42 44 52 55 56 55 54 55 52 49 47 46 41 41 39 35 35 32 29 28 26 25 25 25 26 27 29 30 32 34
21 19 19 20 20 21 23 24 26 27 36 42 43 44 48 50 62 70 74 78 67 58 58 47 49 46 51 56 55 55 56 52 49 49 48 42 46 51 44 40 38 34 33 34 33 31 31 32 34 35 36 37 39 41
21 23 21 22 26 25 22 17 17 24 29 38 42 43 49 62 84 80 75 74 78 41 43 45 39 39 43 54 55 53 48 51 48 45 45 41 40 42 45 43 42 39 39 38 37 37 37 37 38 40 41 43 45 47
24 24 24 27 27 22 20 22 31 35 47 41 35 46 65 78 77 68 64 65 65 44 42 43 39 31 35 39 49 50 46 40 49 47 42 44 42 40 39 43 41 42 43 43 41 40 41 42 44 46 47 49 50 51
23 25 26 24 23 23 21 25 32 38 44 52 53 81 76 76 62 54 36 44 65 61 41 40 25 35 40 39 42 44 40 58 41 44 33 38 48 55 46 45 39 41 43 45 46 46 46 47 48 49 51 52 53 53
25 24 22 20 21 25 31 34 42 48 58 74 89 85 71 60 52 33 31 35 55 49 37 33 20 38 33 46 44 39 42 40 44 46 43 41 33 32 38 41 42 40 42 45 48 49 48 49 50 51 52 52 52 53
49 42 39 37 34 35 43 55 66 75 79 79 77 73 62 50 43 41 40 35 30 31 38 28 33 33 32 46 43 48 43 32 36 37 33 34 36 40 42 43 45 47 48 49 49 48 48 50 49 49 49 50 53 56
60 58 55 55 57 64 70 71 72 76 77 74 71 59 46 44 40 20 22 30 30 35 38 40 43 45 43 37 38 41 44 40 41 39 40 43 39 39 39 41 42 43 44 45 46 45 48 48 47 49 53 57 60 60
51 55 56 58 62 65 66 67 60 64 59 45 53 40 27 13 18 19 27 29 12 7 14 22 25 31 46 40 39 36 40 36 33 32 32 34 38 37 38 39 40 41 42 42 40 40 44 52 51 53 53 51 51 53
52 47 49 52 51 54 59 56 47 43 48 45 31 24 23 21 20 18 19 17 14 7 6 9 14 22 30 38 39 37 35 28 30 31 30 29 28 31 33 35 35 36 38 42 45 47 49 52 48 44 45 51 55 59
40 40 42 45 45 49 43 38 39 22 28 30 26 18 8 11 10 12 8 10 11 9 7 9 12 23 25 26 29 31 27 30 30 28 24 23 26 29 29 29 30 33 37 41 45 48 46 43 42 47 53 56 57 57
30 26 26 32 28 29 27 18 25 20 21 32 28 22 11 9 8 9 10 9 7 7 8 8 7 19 28 25 26 25 21 22 26 24 25 26 27 30 33 38 41 43 41 38 38 40 42 46 52 56 56 56 55 56
20 16 18 16 18 19 21 20 18 17 17 16 14 15 18 14 14 16 15 13 14 13 12 11 18 23 20 23 23 26 27 28 30 29 30 31 33 35 35 35 35 35 37 40 44 50 53 56 57 56 56 56 56 58
20 18 14 12 14 15 15 14 13 12 13 15 17 18 21 21 20 18 16 18 18 17 16 13 12 23 30 31 28 27 28 28 30 32 31 30 32 34 35 38 40 43 45 48 51 54 55 55 56 58 59 59 61 61
12 13 14 15 15 13 14 14 16 15 15 14 12 12 14 14 14 17 19 18 16 17 18 18 20 23 24 24 26 28 29 30 31 32 35 37 40 42 44 47 50 51 53 55 56 57 58 59 60 60 61 60 58 59
10 10 10 9 9 10 10 11 11 12 14 14 13 13 13 15 16 16 17 16 17 18 20 22 25 26 28 31 32 33 34 35 37 40 43 45 47 50 52 55 56 56 56 56 57 57 58 58 58 57 58 60 62 63
5 6 6 7 8 10 12 13 13 13 13 15 16 17 18 19 21 22 23 23 23 24 26 28 30 32 34 36 37 40 43 45 46 47 49 50 52 53 54 54 55 55 56 56 55 51 51 54 57 58 62 64 66 66
9 10 11 12 12 13 14 16 17 18 19 21 22 23 24 25 27 30 31 31 32 32 33 33 35 36 38 40 42 44 45 46 47 49 51 52 53 53 53 53 51 50 51 52 54 55 58 60 61 61 59 59 59 59
8 10 11 12 13 14 13 14 16 19 21 23 24 24 26 28 30 33 33 36 37 38 40 42 44 45 46 47 48 48 48 49 49 50 50 49 47 46 46 47 49 50 52 53 55 56 56 57 57 57 57 57 59 61
3 2 0 2 4 5 6 5 6 7 7 10 13 15 17 20 22 25 27 28 30 33 34 35 36 38 39 40 41 42 42 42 43 44 44 45 46 47 49 50 50 50 50 51 51 53 54 55 57 59 62 64 65 67
2 1 4 5 6 8 11 12 13 14 15 18 21 22 23 26 30 31 31 33 34 35 37 38 39 40 40 41 42 43 43 44 44 45 45 45 45 45 45 46 46 46 48 50 53 56 59 62 64 66 68 68 69 70
4 5 8 11 13 15 16 18 18 19 23 27 29 31 33 35 35 34 36 37 38 39 39 39 39 40 40 41 40 40 39 39 39 39 39 39 41 42 44 47 50 53 56 59 62 65 67 68 68 69 69 70 70 69
13 16 18 20 20 20 21 23 27 28 29 33 35 36 37 38 37 36 35 34 33 32 32 31 32 32 32 32 32 33 34 35 38 40 42 45 48 51 54 57 59 61 63 64 65 67 67 68 69 69 69 68 68 68
19 19 20 21 20 23 27 28 29 33 37 38 37 35 33 31 30 29 28 28 28 27 28 28 29 31 32 34 36 39 42 45 47 50 52 53 55 56 57 58 60 62 63 63 64 64 65 66 67 68 70 71 74 77
21 23 24 26 29 28 28 33 36 36 35 32 30 28 28 29 30 31 32 33 34 35 36 38 39 41 42 44 46 48 49 50 50 51 53 54 55 56 56 56 57 58 59 61 64 67 69 72 74 76 78 79 80 80
26 28 28 27 28 31 32 31 29 29 28 28 28 29 30 32 34 36 37 38 39 40 41 42 43 44 44 45 45 45 45 46 46 45 46 47 48 49 51 54 57 61 64 67 70 72 73 73 73 73 72 71 69 68
24 24 26 28 27 26 26 26 26 26 26 28 29 30 31 33 34 34 34 34 34 33 34 34 35 35 36 37 37 37 38 39 40 42 44 46 48 51 54 56 56 56 56 55 55 54 53 53 53 54 55 56 56 56
23 22 22 22 23 24 25 26 25 26 27 28 30 32 31 31 29 28 27 27 27 28 29 29 29 30 31 32 34 35 37 39 41 43 44 44 41 38 38 39 40 41 41 41 41 41 42 43 44 45 46 46 46 46
18 21 23 25 27 28 28 28 29 28 29 29 30 31 29 25 23 22 22 23 24 25 26 28 29 30 32 33 35 36 36 34 31 27 25 25 26 26 27 29 32 34 36 36 37 37 38 38 39 39 38 37 35 34

GFSWCAN_500_spd_024.txt.gz
Wind_Speed
22 23 24 34 42 41 43 50 51 52 52 52 50 45 43 42 38 39 62 81 83 79 77 77 71 66 59 54 53 54 53 56 55 57 57 52 49 48 43 35 34 34 34 34 31 31 31 29 27 27 25 27 26 26
25 27 30 41 46 44 39 43 45 47 47 46 44 41 41 40 34 41 56 79 82 78 75 74 71 65 58 54 54 52 56 56 56 54 56 55 51 48 41 38 33 34 32 30 30 29 29 27 22 22 20 20 19 18
19 31 31 29 32 35 34 37 41 42 41 42 41 39 41 36 30 33 53 70 81 80 75 73 69 66 61 55 53 54 59 58 58 56 53 52 46 45 40 39 34 30 33 31 29 27 26 23 18 16 16 15 14 14
15 23 27 29 30 31 33 35 36 37 37 40 42 40 37 35 30 34 54 66 81 79 76 73 68 63 56 56 52 51 56 59 57 53 49 52 46 47 46 41 33 28 31 31 31 27 24 22 21 19 17 16 17 19
17 19 20 22 25 25 27 30 31 33 35 38 40 37 34 32 31 35 50 68 77 81 76 71 65 55 49 48 51 52 57 59 58 52 52 49 48 50 45 44 39 30 29 32 29 27 29 27 24 23 23 23 24 26
16 16 18 18 18 19 21 25 29 31 34 35 35 36 32 30 34 37 48 64 71 74 71 70 61 55 52 47 52 53 55 59 57 45 48 49 50 49 47 43 35 31 32 34 33 32 32 31 30 29 31 32 33 34
19 18 16 16 16 16 17 20 23 25 27 32 34 33 33 34 31 36 48 59 69 64 60 63 61 52 45 40 45 55 54 55 54 49 49 52 54 50 46 40 33 35 39 34 36 35 35 34 35 37 38 39 41 42
19 19 19 19 18 19 19 20 23 26 30 32 34 32 30 32 32 35 52 52 57 65 57 54 57 44 37 35 37 48 53 48 47 50 49 52 52 51 47 39 36 30 36 41 44 45 41 42 42 43 45 46 47 48
19 21 21 19 18 17 15 17 24 31 34 32 34 33 34 33 36 52 48 41 37 44 51 51 49 45 44 37 36 33 46 47 44 46 49 50 50 47 42 41 39 37 36 37 34 37 43 45 46 47 49 50 51 52
21 21 20 18 15 20 38 38 34 41 40 43 38 37 37 48 60 49 45 34 39 46 50 49 46 50 40 33 31 35 42 42 41 46 46 50 51 45 41 38 42 46 48 40 42 46 44 45 47 48 48 50 51 52
22 20 18 18 19 34 42 41 35 41 43 37 38 41 58 60 49 40 37 31 43 58 57 49 33 43 32 40 29 35 38 41 47 46 46 41 48 37 38 38 35 41 38 46 48 41 42 45 47 49 50 52 53 53
29 32 30 32 33 40 43 36 36 52 72 72 68 69 59 41 35 27 26 26 45 55 32 23 19 18 23 21 27 22 43 38 40 42 43 34 42 37 49 39 41 37 36 40 43 42 43 45 47 49 50 51 53 48
70 72 57 55 65 66 71 67 66 68 62 64 56 50 40 31 22 25 29 21 28 28 28 27 21 18 18 17 21 21 29 35 35 32 26 33 30 34 35 37 39 38 38 38 40 42 44 45 46 47 48 56 50 54
67 62 58 74 77 68 51 53 41 33 44 47 44 34 20 10 11 16 25 21 21 21 28 30 31 32 29 31 29 31 31 33 44 41 41 38 30 27 31 34 34 34 35 36 39 40 41 41 41 42 43 52 57 61
59 60 58 68 65 57 45 38 46 46 40 35 28 18 23 22 21 21 23 32 19 12 12 13 17 23 27 25 27 34 35 34 34 33 30 31 29 30 32 31 30 30 32 34 36 39 39 44 50 53 55 55 51 48
39 48 56 51 46 46 41 38 31 22 22 23 19 16 13 12 9 14 12 11 8 6 5 4 5 7 12 18 23 28 32 36 29 23 23 28 29 30 30 29 31 33 36 38 41 44 45 49 54 51 48 49 51 54
26 28 34 31 18 18 21 20 13 14 11 10 3 1 2 4 5 3 2 1 3 5 3 3 6 9 11 15 18 17 19 25 27 24 24 27 29 29 31 32 36 39 41 44 47 45 42 43 45 48 51 53 57 63
19 21 18 10 9 14 14 11 10 8 9 13 7 4 5 7 6 6 6 8 10 11 10 11 14 20 20 21 24 27 30 32 34 35 32 31 32 35 37 38 38 38 39 41 44 46 48 51 53 55 60 64 65 66
19 12 10 12 10 8 8 5 3 3 5 6 8 10 9 9 10 11 14 16 13 12 13 14 16 18 23 25 24 25 29 32 33 34 35 36 37 37 38 40 41 43 46 48 50 52 54 57 61 64 66 66 66 65
15 14 14 14 15 14 10 9 8 9 8 6 7 8 8 8 8 10 11 12 14 15 16 17 17 20 23 26 29 31 33 34 35 36 37 39 41 43 44 46 49 52 54 56 57 58 60 62 65 65 64 63 63 62
12 9 7 7 7 9 11 12 13 13 13 14 14 15 16 17 17 16 17 18 19 21 21 23 24 26 27 29 31 33 35 38 39 40 41 43 46 49 52 54 55 56 58 59 61 63 63 63 62 62 60 60 61 63
14 14 14 14 14 13 13 12 13 13 14 15 16 18 20 21 23 24 25 25 26 26 27 29 31 33 35 36 37 39 41 43 44 46 47 49 51 53 55 56 57 57 59 60 60 60 58 58 58 60 61 62 63 65
6 5 5 4 5 8 10 13 14 15 16 18 19 20 22 24 26 28 28 30 32 33 33 33 34 34 35 37 39 41 43 45 47 48 50 52 54 55 56 55 54 53 53 54 55 55 56 57 58 60 61 63 65 66
3 8 3 3 3 4 5 6 6 7 8 10 11 12 13 14 16 17 19 20 23 25 27 30 32 34 36 38 40 41 43 44 45 46 47 47 47 48 48 48 48 49 50 51 53 54 55 56 58 59 62 65 68 71
5 3 1 3 5 7 8 11 12 13 15 17 19 22 24 26 27 29 29 31 34 35 35 35 36 38 39 40 41 41 42 42 43 44 44 45 45 46 46 46 47 48 48 50 51 54 57 61 64 67 71 74 76 77
5 4 4 6 8 12 14 16 17 19 20 22 26 27 28 31 35 37 39 41 41 40 39 38 37 37 38 38 38 37 37 37 37 37 37 37 38 39 41 43 46 50 53 57 60 63 66 69 71 72 74 76 77 77
11 11 13 16 19 20 20 21 22 24 27 27 28 33 37 40 43 43 43 41 39 37 34 32 30 30 30 30 31 31 32 32 34 36 38 40 43 47 50 53 56 58 60 62 64 65 66 67 68 69 71 73 76 78
17 19 22 23 23 23 23 26 27 28 30 33 38 41 43 45 44 40 37 34 33 32 31 31 32 33 34 35 36 38 39 41 43 45 48 50 53 54 55 55 55 56 56 57 57 59 61 64 68 71 72 73 73 72
21 22 23 24 25 27 29 28 29 34 38 41 42 43 40 37 35 33 34 35 36 37 38 39 40 41 42 43 44 46 47 48 49 49 49 48 48 47 47 47 48 50 52 55 56 56 53 52 52 52 53 54 54 55
25 27 26 27 29 29 30 33 37 39 39 38 36 33 32 32 33 34 35 36 37 38 38 39 38 38 38 38 38 38 38 39 40 40 40 40 41 42 44 45 46 43 37 34 35 36 37 39 40 42 44 47 49 50
26 27 27 28 30 33 34 35 35 34 33 31 30 31 31 33 35 35 34 33 31 31 31 31 31 31 31 31 32 33 33 33 34 34 36 38 39 36 31 26 24 24 28 31 33 35 37 38 39 40 42 44 45 45
24 26 29 30 31 31 32 32 32 31 30 31 32 34 34 33 32 31 28 25 24 24 24 24 24 25 26 27 28 29 31 32 33 32 26 21 19 19 20 23 26 29 31 33 34 35 36 37 38 39 40 42 43 43
26 27 27 28 29 30 31 31 29 29 31 34 35 33 32 30 27 24 22 22 23 24 25 25 26 27 27 28 28 27 23 18 14 14 15 17 20 22 25 27 28 29 30 32 34 35 36 37 37 38 39 40 42 42

GFSWCAN_500_spd_027.txt.gz
Wind_Speed
25 15 8 19 28 28 30 32 41 44 40 62 61 53 49 48 41 38 31 34 54 74 75 78 76 74 68 62 56 52 51 49 46 51 53 50 50 46 47 38 32 34 29 28 26 29 27 21 23 24 25 24 25 24
24 21 21 20 26 33 31 37 43 39 51 51 49 49 48 43 37 34 32 37 54 68 60 75 73 72 66 62 57 50 48 48 46 47 52 53 51 49 46 41 33 31 28 26 27 28 30 27 24 23 23 23 22 21
21 23 28 28 31 33 33 38 49 45 51 53 48 46 43 38 35 31 26 36 52 62 68 62 73 72 67 59 53 50 49 51 53 49 46 45 46 46 44 36 35 34 31 32 29 27 25 27 25 24 21 21 19 16
23 20 26 31 37 37 35 37 42 44 46 42 43 43 38 35 33 31 32 37 51 63 67 63 37 50 65 55 51 48 49 51 54 53 49 46 44 40 41 41 37 37 35 29 27 27 27 28 26 26 23 22 20 18
22 23 23 26 28 30 34 37 37 37 37 38 39 38 35 34 32 32 31 41 58 58 48 58 39 27 36 56 47 46 47 52 55 56 55 49 44 40 40 44 39 38 36 31 26 24 30 28 30 26 24 25 25 25
21 22 23 25 27 28 29 32 33 32 31 32 31 31 28 28 27 27 27 51 63 59 40 35 58 45 33 28 40 49 47 47 51 53 54 55 43 37 42 43 40 37 34 34 35 31 31 30 30 28 28 28 29 31
20 23 25 24 24 25 27 28 28 30 31 30 28 27 27 26 21 17 33 62 48 46 53 34 29 29 39 39 39 32 44 47 49 49 50 49 43 41 37 41 38 40 37 39 33 34 34 33 31 32 32 33 34 36
18 20 23 23 24 26 26 26 27 29 29 28 27 28 25 22 16 20 48 59 46 43 45 59 42 29 35 36 36 37 31 41 45 47 43 41 41 36 39 37 38 38 39 39 38 29 37 38 38 36 35 37 40 41
20 19 20 21 21 23 25 26 26 27 27 28 28 25 23 20 18 30 38 44 44 57 37 34 39 45 32 35 34 34 33 29 36 42 40 36 41 45 40 35 39 41 42 42 38 33 30 41 43 44 45 42 44 46
22 22 19 18 17 15 18 23 25 25 25 24 22 21 24 23 33 35 29 27 29 48 39 35 30 33 40 34 30 27 30 29 30 33 37 37 34 40 44 41 41 44 46 43 37 33 37 37 40 41 42 45 47 50
24 25 22 15 13 15 20 22 24 27 26 26 24 24 23 20 28 26 22 21 36 47 39 33 28 21 27 33 27 22 26 26 25 26 33 33 37 36 38 43 43 44 44 43 38 42 43 46 45 45 46 45 48 49
17 24 30 24 28 31 34 36 38 29 25 25 23 28 43 44 38 32 27 19 17 33 31 34 32 27 27 26 31 32 21 30 34 31 30 33 34 34 37 39 39 45 48 47 49 50 41 38 41 40 46 50 47 44
38 44 37 42 39 46 54 53 46 37 37 38 44 52 40 28 26 25 18 21 22 26 27 31 26 25 26 32 31 30 31 24 34 36 33 33 35 35 36 37 46 33 50 53 45 33 35 40 43 44 44 44 44 44
72 64 68 61 58 53 48 43 37 44 58 55 41 35 37 24 22 24 17 15 14 22 31 37 24 18 23 15 27 31 28 29 20 28 32 37 29 22 24 33 43 36 32 34 35 35 38 40 40 40 41 40 42 45
75 63 42 45 43 40 33 38 38 33 50 36 21 6 15 21 25 20 20 17 18 16 17 17 14 12 17 15 19 19 22 26 27 27 22 28 31 30 33 37 33 28 29 31 32 32 33 36 36 36 38 45 49 51
49 46 41 47 41 36 43 41 34 31 20 24 35 31 28 25 29 22 20 18 19 18 16 15 13 13 20 22 24 18 20 25 31 29 27 27 27 19 22 22 23 28 30 31 32 33 36 39 41 43 48 50 52 55
40 38 36 32 32 36 32 26 28 29 30 27 23 26 24 22 20 19 17 14 13 13 11 9 10 10 12 16 23 24 21 17 12 14 20 24 18 16 19 21 25 29 32 33 36 39 43 47 50 51 51 51 52 54
21 24 26 26 21 19 18 19 21 20 14 13 15 14 14 13 11 10 8 6 4 4 5 7 10 9 7 7 8 13 19 16 17 20 22 23 24 25 27 29 29 31 35 39 43 48 51 51 50 50 52 55 58 61
12 15 13 14 9 10 11 10 9 10 9 8 5 5 4 3 5 7 6 6 6 8 11 11 11 12 15 18 19 20 21 22 25 27 28 27 27 29 32 35 38 40 43 45 45 46 49 51 53 56 59 62 64 65
13 10 9 5 6 4 2 5 4 2 3 3 4 4 3 2 1 1 3 5 6 9 12 12 14 17 20 22 24 26 27 29 30 31 31 33 34 36 38 41 43 45 47 48 50 52 54 55 57 58 60 61 63 65
13 13 12 11 8 6 5 5 5 4 3 4 4 4 5 5 6 8 9 11 13 14 15 17 19 20 22 24 26 28 31 33 35 37 38 38 39 42 45 46 47 49 50 52 54 55 57 58 59 61 62 63 64 66
12 11 10 10 9 9 9 7 7 8 9 10 11 12 13 14 16 16 16 18 20 21 23 25 27 28 29 31 33 34 36 38 40 41 42 44 45 47 48 50 51 52 53 54 56 57 59 61 62 63 64 64 65 67
12 11 10 10 9 10 10 10 11 11 11 12 14 15 17 19 21 23 24 26 27 27 27 27 28 29 31 33 35 37 38 40 42 44 46 47 49 50 52 54 55 57 58 60 60 61 60 61 61 62 62 63 64 65
8 10 8 7 5 4 4 3 1 1 3 5 7 10 12 15 17 18 21 23 25 26 29 31 32 33 34 34 35 37 39 41 43 45 47 49 51 52 53 54 54 55 54 54 54 54 54 55 56 58 60 63 66 70
12 10 7 6 4 3 2 2 2 4 6 8 11 14 16 19 21 23 25 27 29 31 33 36 38 40 40 42 42 43 45 46 48 48 48 49 49 49 49 49 48 48 48 49 50 52 55 58 61 65 68 71 73 75
9 7 4 2 3 7 10 11 13 14 15 17 19 21 23 24 25 30 34 36 38 42 46 48 47 45 43 41 40 40 41 41 41 42 42 42 42 42 43 44 45 47 50 53 56 60 63 65 66 67 67 66 66 66
7 7 8 9 12 15 18 20 22 23 24 27 27 28 30 32 36 39 42 46 48 49 46 42 38 35 34 33 33 33 33 34 35 37 38 39 41 43 46 49 52 55 57 59 59 58 57 57 56 57 57 55 50 48
11 12 13 16 19 22 25 28 28 28 30 29 30 33 37 40 43 46 48 46 42 37 34 34 34 34 35 36 37 38 40 41 42 43 45 46 48 49 50 50 50 49 48 48 47 48 49 46 39 38 42 45 48 50
17 18 20 22 25 28 30 30 29 29 31 33 37 41 43 46 46 42 38 36 36 36 37 38 38 39 39 39 39 39 39 39 39 39 39 39 40 40 40 40 40 41 42 41 36 30 31 37 41 43 43 43 44 45
20 22 24 27 30 30 29 29 31 34 37 40 43 45 44 40 37 37 37 38 39 39 38 37 35 33 32 31 31 31 31 31 31 32 32 32 33 34 36 35 31 26 25 26 31 35 36 36 37 38 40 41 43 44
23 26 29 29 27 27 30 33 36 39 41 42 43 40 37 36 38 40 39 37 35 32 28 26 25 24 24 24 24 25 26 26 27 28 29 28 25 20 18 19 21 25 27 27 28 31 33 34 36 38 39 40 40 40
27 25 24 25 29 31 34 37 39 40 41 40 37 36 38 41 39 36 33 29 26 24 23 23 24 25 25 26 26 26 25 24 21 15 12 12 14 17 19 20 21 24 25 27 29 31 33 36 38 39 39 39 38 36
21 24 27 30 32 33 34 35 36 37 37 36 37 40 41 37 32 28 25 24 25 25 26 26 26 25 24 23 21 16 9 6 7 10 12 13 15 18 20 21 23 25 26 28 32 36 39 41 41 39 37 34 33 33

GFSWCAN_500_spd_030.txt.gz
Wind_Speed
34 31 18 15 12 10 23 32 35 39 47 49 68 60 61 51 45 47 44 46 42 46 34 44 53 52 69 69 62 60 58 49 50 50 54 48 58 51 49 47 43 38 35 34 32 32 22 16 19 22 18 22 25 24
29 23 4 12 15 22 27 32 37 38 42 47 60 62 56 46 40 41 41 43 40 42 37 47 63 47 58 64 62 59 52 48 50 53 51 51 49 54 55 47 47 40 37 37 32 27 21 22 25 26 23 24 25 24
25 23 11 13 16 18 24 31 33 37 40 49 65 55 50 44 37 38 38 34 32 39 41 37 31 40 45 60 61 58 52 49 49 46 42 41 50 49 49 50 41 39 34 30 27 24 19 20 24 26 27 27 26 23
18 24 22 11 12 18 32 36 31 38 52 54 48 43 44 36 38 37 34 28 25 30 49 42 24 35 51 60 55 52 50 47 50 50 46 42 43 46 50 44 43 42 33 34 28 23 21 21 25 29 31 29 25 25
18 25 22 26 25 30 28 28 44 52 53 47 42 40 36 39 37 33 28 21 22 28 43 34 20 21 42 54 51 49 48 48 47 47 48 43 39 38 42 42 42 44 38 34 26 21 28 23 27 31 31 29 27 27
18 22 24 28 36 40 40 46 48 46 44 41 38 36 37 35 32 29 28 28 21 47 46 37 28 17 16 49 45 45 45 45 46 46 42 41 38 37 37 36 31 37 39 39 34 29 30 29 31 32 33 31 31 30
20 23 24 25 29 29 31 34 35 36 35 36 37 35 32 29 28 26 22 25 21 54 44 35 33 31 22 22 35 43 41 41 42 44 45 42 41 37 34 31 26 30 35 40 38 38 34 28 30 33 38 36 35 36
24 25 28 30 30 31 33 33 34 34 34 33 30 28 27 26 24 23 26 29 40 46 48 43 46 45 39 30 25 39 36 36 40 41 40 41 39 39 34 28 30 31 30 39 39 35 35 35 33 31 35 37 40 41
27 27 27 28 29 29 28 29 29 29 30 30 28 25 21 20 20 24 25 45 52 53 52 36 44 42 41 24 30 33 23 34 38 39 37 36 36 36 33 29 30 31 33 34 37 37 41 33 32 29 32 38 44 44
29 30 31 30 30 30 31 31 30 31 30 28 25 21 17 13 13 51 55 58 54 40 40 42 46 41 37 27 31 35 23 16 16 19 23 35 32 32 33 28 30 34 32 31 35 38 37 39 40 38 38 41 40 45
26 26 28 32 33 34 34 33 32 30 25 23 21 19 18 31 47 45 46 51 41 49 51 48 45 41 37 34 31 34 18 21 24 19 21 21 23 31 32 31 27 31 36 36 36 38 40 42 42 39 40 44 48 50
21 25 27 32 35 35 34 31 29 27 27 25 23 22 27 32 38 38 46 48 48 39 37 32 26 24 29 29 26 23 19 18 18 16 19 19 20 25 31 32 32 32 32 36 38 39 42 43 45 47 46 50 52 48
24 27 34 36 38 38 34 33 31 28 25 25 28 36 35 37 36 31 36 44 43 36 32 33 26 21 18 29 29 26 19 16 12 12 15 21 25 24 25 29 28 30 33 35 37 39 39 42 42 41 43 40 43 45
46 43 48 47 38 31 27 27 29 36 47 40 31 32 31 30 28 27 30 36 41 40 34 30 26 20 16 21 22 22 25 21 17 21 20 12 11 18 26 27 27 31 34 35 41 39 39 33 36 31 36 34 33 44
50 48 43 39 38 34 28 30 49 51 38 30 23 13 8 8 9 19 27 31 28 28 30 29 24 20 19 15 19 22 24 25 26 24 23 23 24 23 20 26 28 28 35 40 37 38 42 38 38 37 41 44 44 43
38 45 45 42 38 33 39 52 49 41 29 16 20 25 26 35 31 30 30 33 30 27 22 30 20 12 24 23 13 16 17 14 18 21 24 24 23 27 28 25 25 28 33 33 29 30 31 33 34 36 38 40 43 46
35 36 41 32 31 29 37 37 30 16 25 26 28 26 30 31 30 28 26 24 27 22 22 21 17 15 17 20 18 21 23 22 21 20 22 24 28 32 28 26 22 20 21 26 29 29 31 33 37 41 43 46 48 50
33 31 25 23 25 24 26 23 25 24 22 21 23 24 23 23 26 24 23 22 21 18 16 17 17 15 14 17 22 27 28 23 21 22 19 19 20 20 20 22 25 28 29 31 35 37 36 37 41 45 48 50 52 54
28 26 23 23 23 23 24 24 23 18 18 18 18 18 17 17 17 17 16 15 15 14 14 14 14 14 15 15 15 17 18 21 23 23 23 25 26 25 26 28 30 32 34 36 39 42 46 49 51 53 54 56 58 60
17 16 16 15 14 14 15 15 11 12 14 14 14 13 13 12 10 8 7 7 8 11 12 12 13 14 17 18 20 20 22 23 25 27 29 30 32 33 34 35 37 39 41 43 45 46 48 50 52 55 57 58 60 62
8 4 5 10 9 12 9 8 6 8 8 9 8 7 6 3 3 2 2 2 3 4 6 8 11 14 17 20 22 25 28 30 32 34 34 36 37 38 38 40 42 44 45 47 49 50 52 53 54 56 58 59 61 63
11 9 6 6 7 7 4 3 2 3 3 4 3 2 3 3 3 5 7 9 11 13 16 17 19 20 21 23 26 29 31 33 36 38 41 42 42 43 43 44 45 46 48 49 50 52 53 55 57 60 62 64 65 65
9 6 4 3 2 3 3 3 3 3 4 6 7 8 9 10 11 13 14 16 18 20 22 24 26 27 29 31 32 33 33 34 36 37 38 41 43 44 46 48 50 52 53 54 55 57 58 58 58 58 58 59 60 61
9 8 6 5 6 4 6 5 5 5 6 5 6 7 8 10 11 13 16 19 22 24 26 28 32 33 35 36 38 40 41 43 45 46 47 48 49 50 51 52 52 53 53 53 53 53 53 53 54 55 56 58 61 65
12 10 8 7 6 6 5 3 3 2 4 6 8 10 13 15 18 21 24 27 30 33 36 38 39 41 42 44 46 49 52 53 53 52 51 51 51 51 50 49 48 47 46 46 47 48 50 52 55 59 62 65 66 65
11 8 7 6 5 4 2 2 4 7 9 12 14 17 19 21 24 26 29 33 36 38 40 43 45 49 53 55 55 52 48 45 43 42 43 44 44 44 45 45 46 47 48 50 53 56 58 60 61 60 58 55 55 53
10 9 8 7 7 7 8 10 12 16 18 19 21 22 24 26 28 31 35 38 40 44 48 51 52 50 45 41 39 38 37 38 38 40 41 42 43 45 46 48 49 50 51 52 52 51 50 49 48 48 46 41 40 46
10 9 10 10 11 12 14 17 20 24 26 25 26 26 28 31 34 37 41 46 48 49 45 42 39 38 38 39 39 39 40 40 40 41 41 42 43 43 44 44 44 44 44 43 42 41 40 36 32 35 40 41 41 42
13 13 14 15 17 19 21 24 26 27 27 28 29 32 35 39 42 45 47 47 44 41 40 41 40 40 38 37 36 34 33 32 32 32 32 32 32 32 31 31 31 32 32 28 24 25 29 30 31 33 37 40 42 44
15 17 18 20 21 23 25 26 26 27 29 32 35 38 41 43 44 45 41 40 41 42 41 38 34 30 27 25 24 23 23 24 24 24 24 25 26 27 26 22 18 18 20 21 22 25 28 31 34 37 41 45 47 47
18 19 20 22 24 23 24 26 28 31 34 37 39 41 42 42 40 39 42 42 40 35 30 26 23 22 22 22 23 24 25 25 25 24 23 19 12 11 13 14 15 17 21 24 26 29 32 35 39 42 43 42 39 36
21 22 21 19 20 23 26 29 32 34 37 38 39 40 40 38 40 43 40 34 28 25 24 24 24 25 25 24 24 23 21 20 14 7 6 7 8 9 12 15 18 21 23 25 28 31 34 38 37 36 36 34 32 32
15 15 18 21 24 26 28 31 33 35 36 36 38 38 37 40 42 35 30 27 27 27 27 26 25 23 22 21 19 14 5 2 2 2 4 7 9 12 15 18 21 23 25 27 30 33 35 37 35 34 33 32 31 31

GFSWCAN_500_spd_033.txt.gz
Wind_Speed
29 34 28 23 26 21 13 13 20 30 37 46 48 60 59 56 60 48 49 50 44 32 37 35 37 39 46 49 52 64 59 60 57 58 50 55 44 49 49 46 26 47 48 44 41 37 34 22 20 23 22 28 31 27
25 26 8 16 17 4 9 10 16 32 40 46 46 59 51 53 51 48 50 46 42 33 37 39 27 25 35 38 51 62 47 53 54 54 51 55 46 48 50 54 34 39 45 42 42 40 27 27 21 20 24 33 33 31
19 16 7 10 10 11 12 19 26 36 36 42 47 52 60 53 48 44 42 40 37 34 31 36 32 28 32 39 57 62 51 49 53 51 50 48 46 45 39 44 51 41 39 44 42 36 33 27 23 25 25 31 36 35
15 13 4 6 8 15 18 24 28 32 36 43 54 58 53 48 48 42 34 32 32 34 32 28 30 31 33 30 47 58 48 46 52 50 50 49 47 50 45 41 49 46 48 42 42 36 38 33 24 27 32 32 35 39
17 16 11 16 18 18 20 26 29 31 42 53 51 53 48 41 41 37 34 29 32 37 33 24 24 35 42 38 47 50 49 47 45 45 50 49 45 49 50 45 46 44 46 46 46 39 35 29 29 32 31 30 30 32
24 25 20 16 12 18 26 32 35 41 54 46 47 45 39 33 33 36 33 32 28 29 33 28 33 25 30 39 36 45 50 41 42 46 44 43 36 40 39 46 40 40 43 46 43 44 36 32 30 30 28 31 29 31
23 28 29 35 42 43 47 50 50 49 45 41 40 38 35 36 35 34 29 21 22 23 44 29 18 26 32 33 38 37 39 42 41 45 45 39 35 33 33 33 28 33 36 39 42 46 42 35 34 29 31 33 32 32
22 25 27 30 37 40 41 42 41 39 37 36 36 37 39 36 32 29 26 20 29 40 45 35 29 29 31 27 31 38 36 38 41 42 41 36 32 28 30 27 26 28 31 30 37 41 38 40 37 34 36 36 34 36
24 27 27 27 27 29 31 31 31 32 33 36 36 36 34 31 27 23 22 29 49 48 34 35 37 30 28 32 33 38 37 36 35 36 36 35 32 32 29 23 24 25 26 29 27 30 33 35 35 34 34 38 37 33
25 27 27 30 30 29 27 26 27 27 27 26 26 25 24 23 23 23 26 31 46 36 32 36 31 25 25 28 36 38 36 32 32 28 26 31 31 36 32 25 24 25 26 29 33 36 37 37 39 40 41 39 39 38
27 28 29 28 27 27 26 25 24 23 24 23 23 22 23 24 22 29 32 36 51 35 36 32 38 33 27 22 31 22 25 29 26 24 24 24 25 32 26 25 25 27 28 27 30 34 36 38 38 39 42 46 46 47
31 31 33 34 33 33 32 31 28 27 24 22 19 19 21 18 21 24 41 43 53 41 29 36 33 33 26 26 27 25 21 27 23 21 20 20 16 17 20 22 26 28 30 30 29 33 38 40 42 42 42 44 44 45
34 35 36 36 35 33 30 27 25 25 24 26 29 23 28 29 33 43 52 51 57 39 33 36 27 16 17 17 26 24 19 15 18 18 18 13 15 19 20 19 18 23 29 32 34 37 38 38 39 41 41 39 42 46
32 34 33 31 30 27 25 21 21 23 21 21 20 31 29 37 45 38 38 51 49 39 36 36 31 30 27 22 21 24 26 21 16 16 12 11 5 5 10 19 23 25 26 27 30 34 37 37 37 41 39 43 46 45
32 35 35 27 22 20 20 20 21 22 21 26 30 34 29 33 40 41 38 40 43 45 32 32 28 25 21 21 25 24 23 24 21 17 16 14 14 15 15 18 18 20 26 28 30 30 38 42 40 42 51 50 47 45
26 21 21 20 22 30 30 28 27 23 24 15 8 3 12 24 45 51 55 47 43 36 32 27 24 22 18 22 18 23 23 25 25 23 22 23 22 22 22 21 21 21 22 28 36 42 42 38 37 40 39 42 43 42
26 25 32 37 34 31 24 24 24 17 13 12 22 25 30 34 41 41 39 39 37 35 31 26 18 17 19 20 17 13 15 21 19 19 22 25 24 23 26 27 28 29 28 30 32 34 37 38 38 38 38 39 41 44
30 36 39 40 31 25 29 27 25 23 23 25 27 28 29 29 36 36 35 31 29 31 28 26 23 19 17 21 27 26 24 25 26 27 26 24 25 26 25 27 29 29 29 31 33 35 35 38 43 48 49 49 49 47
16 15 20 17 24 24 22 22 23 27 26 26 26 25 23 23 23 23 22 21 19 18 20 21 17 16 17 17 18 20 22 26 28 29 28 27 29 29 27 27 28 30 32 34 35 38 40 43 44 46 49 52 54 56
24 22 21 24 24 22 21 20 20 18 18 19 19 19 19 19 19 18 17 17 18 18 17 16 13 13 14 15 17 18 19 21 22 24 25 26 28 30 31 32 34 36 38 40 42 44 46 49 52 55 57 59 61 63
15 17 19 16 16 17 16 15 15 16 16 16 17 18 17 15 15 14 12 11 10 10 9 10 12 14 15 18 20 22 24 26 28 30 32 34 35 37 39 40 41 43 45 47 48 50 51 53 55 56 58 60 62 63
15 14 15 17 17 13 12 13 12 11 11 11 11 11 9 8 7 6 5 5 5 6 7 9 11 14 16 19 22 25 28 30 33 36 38 40 41 43 44 45 47 48 50 51 52 53 55 56 58 59 61 62 63 64
9 9 11 13 14 12 7 5 7 9 7 7 7 6 5 4 3 3 3 2 4 6 9 12 15 19 24 28 31 33 34 35 36 38 40 43 45 47 49 50 52 53 54 55 57 58 59 60 61 62 63 63 64 64
8 6 6 9 9 6 6 8 7 7 6 5 4 4 3 4 6 7 9 12 14 18 19 23 29 32 33 35 37 40 42 45 47 50 52 54 54 54 52 52 52 52 53 54 55 55 56 56 56 56 56 57 59 60
8 9 9 10 9 8 6 5 4 2 0 2 4 7 9 11 13 15 17 19 22 25 28 32 35 37 39 44 48 50 52 55 57 57 55 52 50 49 48 48 48 48 48 47 47 48 49 50 52 54 55 56 56 55
13 11 9 7 6 4 3 1 2 4 7 8 10 13 16 18 21 23 26 29 31 34 37 40 42 46 50 53 55 56 55 52 49 45 44 42 42 42 43 44 45 46 47 48 49 50 51 51 51 50 49 48 47 45
12 10 7 5 3 3 6 8 9 10 12 14 17 19 22 24 27 28 30 33 35 38 42 46 50 54 55 52 48 45 43 43 43 43 43 43 44 44 45 45 46 46 46 45 45 44 42 40 39 38 36 35 37 40
7 6 6 7 8 9 11 12 14 16 18 20 23 24 26 27 28 30 33 37 41 46 49 51 48 46 44 43 43 42 41 40 39 39 38 37 36 35 34 33 32 31 30 30 30 30 28 27 28 32 33 36 40 42
10 11 12 13 14 15 16 17 19 21 23 24 24 24 25 28 32 36 41 44 48 48 44 44 44 43 40 37 33 31 28 26 25 24 23 23 24 24 25 25 25 24 20 18 20 23 24 27 31 33 35 39 41 40
16 16 16 16 17 17 19 20 22 22 22 23 25 28 31 35 39 42 45 45 42 43 43 41 36 31 27 25 23 22 21 22 22 23 25 24 24 21 16 11 12 14 15 18 21 23 26 29 31 34 36 37 36 36
17 17 18 19 19 22 23 22 20 21 24 27 30 34 37 39 42 42 41 41 43 40 33 28 26 25 25 25 24 24 24 24 24 22 20 13 7 8 8 10 13 15 18 20 23 25 28 30 32 34 36 37 37 36
20 20 21 23 23 21 19 21 24 26 29 31 34 37 39 40 40 40 41 41 35 29 28 29 28 27 26 25 24 22 21 20 17 7 4 4 5 8 10 13 16 18 21 24 26 28 30 32 34 36 37 38 38 38
22 21 19 19 20 21 23 24 27 30 32 34 36 38 38 39 37 40 38 33 29 29 30 30 30 28 26 24 21 17 9 3 3 2 2 5 7 10 13 16 19 22 25 27 29 31 32 33 35 37 38 39 40 40

GFSWCAN_500_spd_036.txt.gz
Wind_Speed
44 33 33 35 33 29 33 35 30 32 34 34 41 48 51 58 60 56 42 52 45 42 45 42 39 40 36 48 50 37 43 50 47 58 55 53 59 65 57 47 39 40 50 48 50 52 51 43 37 37 27 19 26 27
26 26 29 19 24 27 25 23 22 16 23 32 39 41 47 59 60 61 46 50 46 41 43 40 35 30 33 33 36 40 36 41 44 45 60 52 49 54 55 54 44 40 36 41 47 48 47 41 33 28 21 27 31 34
23 27 25 19 21 18 13 13 7 13 25 31 40 42 45 50 56 49 50 48 43 42 38 34 31 34 34 37 38 43 42 42 54 37 49 44 55 52 52 52 44 41 31 41 42 40 36 40 36 36 31 31 30 33
20 20 14 12 11 12 3 10 14 20 28 34 40 48 47 48 52 48 50 42 42 40 36 22 32 28 28 32 35 37 42 37 41 43 41 41 48 49 48 45 45 40 16 32 52 47 46 47 32 31 35 32 34 34
16 12 7 6 2 9 12 12 20 27 30 33 38 43 49 50 46 46 47 43 40 41 35 32 32 30 28 29 34 37 36 42 37 24 39 44 44 44 43 43 47 36 41 36 51 35 24 36 37 40 36 35 33 35
20 9 7 4 14 17 18 21 23 30 37 41 43 41 44 46 46 41 42 40 34 32 27 29 33 35 27 27 20 40 31 48 45 27 24 39 46 40 43 42 38 36 34 37 40 36 40 42 42 41 42 39 39 38
17 21 19 22 23 25 35 42 37 40 41 43 39 41 47 45 42 34 33 33 29 36 32 27 26 25 27 30 30 43 47 51 39 34 30 30 32 38 35 35 33 36 36 38 40 39 44 42 45 47 44 42 36 33
23 29 35 36 40 47 43 43 45 47 46 43 41 42 40 38 33 34 33 29 27 27 26 24 22 20 22 35 32 43 57 55 44 35 34 32 29 28 28 32 30 32 33 35 42 39 37 39 46 48 43 43 42 44
23 27 34 36 40 38 35 39 37 37 36 35 38 41 40 38 35 30 27 24 24 26 31 27 20 15 25 37 30 46 48 47 35 28 24 30 30 28 22 22 25 29 32 34 32 32 33 37 39 40 43 47 49 44
24 26 26 31 31 31 31 30 30 31 31 30 36 37 35 31 27 25 22 23 31 35 35 27 22 20 31 41 37 37 36 36 33 29 27 26 28 31 26 22 22 21 21 24 29 29 26 32 32 31 30 34 37 41
21 23 24 24 26 27 25 24 23 25 27 32 31 28 28 26 23 22 19 20 36 45 38 27 29 29 29 36 40 33 29 28 25 25 26 26 29 29 27 27 23 23 21 24 26 26 27 28 30 36 38 38 39 38
19 20 22 23 23 23 25 25 26 26 25 25 25 24 23 21 20 19 21 37 40 32 25 25 19 16 33 28 31 36 30 24 23 25 29 23 23 26 25 24 25 26 28 29 28 31 33 34 36 39 42 42 41 40
20 19 19 18 19 20 21 21 21 21 22 23 23 23 18 26 25 23 26 35 33 21 20 20 17 26 33 29 31 25 19 21 28 27 27 21 18 14 16 19 22 23 26 30 32 34 36 37 36 36 38 42 45 46
25 23 22 21 20 18 17 16 14 14 13 14 20 25 21 23 30 31 29 32 31 19 23 23 23 25 27 32 35 23 14 25 30 32 27 19 16 14 17 19 21 23 24 22 23 26 30 33 34 33 34 37 39 41
22 20 19 18 17 18 19 16 13 11 12 12 21 20 16 17 26 34 36 37 22 23 24 21 19 19 19 16 15 13 12 13 16 18 16 15 13 15 17 17 18 19 21 23 25 28 31 32 31 33 34 39 44 47
20 16 16 17 18 20 22 17 19 21 16 14 14 15 20 27 27 27 43 34 21 24 22 19 16 14 13 13 11 11 12 14 15 18 16 17 19 21 22 23 24 25 25 25 26 26 28 31 36 39 41 40 40 40
18 18 18 19 19 24 23 23 18 8 6 6 10 14 22 30 34 31 41 29 23 21 16 14 18 18 17 16 11 11 15 17 19 18 18 19 20 23 24 26 26 26 27 29 30 32 35 35 36 38 40 39 39 41
18 20 17 14 16 23 24 23 21 18 23 24 21 20 24 34 45 47 40 34 34 33 31 23 15 10 10 13 15 14 14 14 14 16 15 19 22 27 28 28 29 32 34 34 36 37 38 39 40 41 43 44 45 47
23 22 22 24 23 23 20 20 18 29 32 27 27 33 36 38 40 41 36 39 31 28 26 14 2 5 8 11 12 13 16 17 18 20 23 25 26 27 29 29 29 29 30 31 33 35 37 38 40 42 44 46 48 50
16 16 16 19 20 24 24 26 28 29 30 29 30 33 30 26 27 26 25 22 19 12 7 5 11 11 9 10 11 13 15 15 17 19 22 23 25 26 28 30 32 34 36 38 40 42 44 46 48 50 52 54 56 58
17 20 21 22 23 22 22 22 23 25 27 27 27 25 25 24 21 18 16 15 12 11 9 7 6 7 9 11 13 16 18 20 22 24 27 30 33 35 38 40 42 44 45 47 48 49 51 52 53 55 57 58 60 62
13 14 15 16 18 20 19 16 16 17 17 18 20 17 16 15 13 12 10 7 5 4 4 6 8 10 12 15 17 19 21 23 26 30 33 36 38 41 44 47 51 53 54 54 54 54 55 56 58 59 61 62 63 65
15 13 14 13 18 15 14 13 13 11 9 11 12 11 10 10 9 7 8 5 5 4 5 7 10 14 17 20 24 29 32 35 38 42 44 45 47 49 52 54 55 55 58 60 60 60 60 61 61 61 62 62 63 63
11 11 12 13 9 7 9 13 13 12 11 10 10 10 8 8 6 3 1 4 7 11 14 18 22 26 29 33 37 40 43 46 49 52 54 56 57 56 54 53 52 52 52 52 52 53 53 53 53 53 54 54 55 56
5 9 10 11 12 12 10 11 10 9 8 6 5 5 6 7 8 11 13 16 20 23 27 30 33 36 39 41 45 47 51 54 57 59 60 57 55 52 49 48 47 46 45 45 45 46 47 49 50 50 51 51 50 49
6 7 10 9 8 6 6 4 3 3 3 5 6 8 10 13 16 19 23 26 30 33 36 39 41 44 46 48 52 57 59 60 57 54 51 48 47 46 46 46 45 45 46 46 46 45 44 42 40 38 35 33 32 33
10 10 9 8 6 4 2 3 5 6 9 11 13 15 18 20 24 27 30 33 35 38 39 41 43 46 52 56 57 56 54 52 51 49 48 46 44 42 40 38 36 35 34 32 30 29 28 26 25 24 26 29 32 35
11 9 7 5 5 6 6 8 10 12 14 17 19 21 24 27 28 30 32 33 35 38 41 45 51 53 52 52 52 51 48 43 38 35 32 29 27 26 25 25 24 24 24 24 20 17 18 20 23 25 28 31 33 35
9 8 8 8 9 10 12 14 16 18 19 21 24 26 27 28 29 30 33 36 40 45 48 51 50 49 50 48 41 35 30 27 25 24 23 23 24 26 26 25 23 16 12 14 15 18 20 23 25 27 29 31 34 36
11 11 12 13 14 15 16 18 19 21 23 26 27 26 26 28 31 35 38 43 46 48 49 48 48 47 41 35 32 31 30 29 27 26 26 26 24 22 16 10 10 11 13 15 18 20 23 25 28 30 32 34 36 38
15 16 16 16 17 19 20 22 24 26 26 25 26 28 30 33 37 41 45 47 48 47 46 47 43 38 35 35 34 32 31 28 26 23 20 19 10 6 6 8 10 12 15 18 21 24 26 29 31 33 34 36 37 39
16 17 19 21 22 24 26 27 26 25 26 28 30 32 35 39 42 45 46 46 44 45 43 39 36 37 37 36 33 30 27 24 20 16 8 4 3 5 7 10 14 18 22 25 27 28 29 31 33 35 36 37 38 40
20 22 23 25 27 27 26 26 28 29 30 32 34 37 40 42 44 45 44 42 43 41 36 36 37 31 25 20 16 11 7 2 3 3 2 2 5 8 12 16 20 23 27 29 29 30 31 33 35 36 37 39 40 41

GFSWCAN_500_spd_039.txt.gz
Wind_Speed
39 45 50 41 37 36 36 39 41 41 43 45 48 51 52 51 50 53 60 53 57 66 53 47 51 47 45 36 42 43 48 54 51 55 52 51 52 41 46 38 40 44 51 30 43 50 47 45 38 47 38 31 27 29
41 32 31 33 36 37 37 36 35 39 41 37 38 44 45 50 52 52 51 53 48 51 61 41 33 38 47 41 34 39 46 47 51 53 46 45 50 46 39 39 33 39 44 47 27 49 41 41 38 35 40 37 34 38
24 27 28 26 27 26 26 30 29 31 34 31 28 29 37 39 41 40 52 49 43 48 46 43 43 37 38 38 35 37 45 47 48 46 41 45 47 37 54 36 38 38 44 46 30 42 44 47 42 39 39 42 39 32
20 18 15 15 13 12 15 18 18 11 14 23 25 25 37 39 39 43 43 39 35 41 53 40 40 36 35 35 34 34 37 43 39 41 43 43 41 41 48 51 41 38 42 41 25 27 41 43 38 44 43 43 49 45
24 16 9 10 4 8 5 7 6 12 22 25 27 31 32 38 41 40 42 36 34 33 41 24 29 35 31 34 35 33 30 34 38 37 31 37 34 37 42 42 44 36 35 41 41 25 39 44 43 35 34 50 49 45
19 7 3 4 9 6 10 14 21 22 29 37 39 36 38 37 40 45 36 46 43 38 30 25 25 27 33 29 29 32 34 35 33 29 33 32 32 35 36 38 35 34 35 37 41 38 27 40 39 48 34 32 36 42
18 16 12 12 10 17 21 22 27 30 34 41 40 35 36 42 43 43 35 42 43 34 29 31 25 27 29 29 32 35 35 36 34 30 28 24 29 31 33 33 37 33 34 34 38 40 41 33 35 38 43 48 44 42
27 25 23 33 31 27 27 29 33 37 41 41 43 43 40 39 46 48 35 37 33 30 30 29 30 32 32 26 25 38 38 37 34 25 22 17 24 24 34 29 27 29 29 27 32 36 37 32 34 37 39 37 40 42
29 33 35 37 40 40 39 40 41 42 39 39 40 42 42 42 40 35 31 29 31 33 33 32 28 28 26 33 27 31 42 34 38 18 29 24 21 25 28 21 20 20 22 25 31 36 36 35 32 34 35 38 42 44
23 24 28 31 34 36 37 36 38 38 41 42 40 38 38 38 39 38 37 36 35 35 32 29 23 22 25 29 33 39 36 38 41 29 34 28 22 26 22 20 20 21 27 28 30 32 33 33 33 32 32 34 40 45
19 22 22 23 24 26 27 29 28 31 34 36 35 33 36 37 34 31 27 26 26 23 22 23 22 15 19 27 35 35 39 43 36 35 32 27 30 27 23 18 15 13 14 12 16 20 22 24 27 29 30 33 36 38
16 15 15 15 16 18 18 19 22 25 26 27 25 25 24 23 21 19 17 14 20 25 27 18 16 18 15 21 26 25 33 40 36 32 35 32 25 21 19 21 20 19 20 23 26 28 32 33 32 33 32 33 36 39
14 15 15 15 14 13 14 17 20 23 24 23 23 21 20 20 18 15 14 15 21 32 23 21 14 15 23 27 33 31 32 34 32 34 37 29 22 19 20 20 21 23 26 31 33 34 37 37 37 39 40 40 40 39
16 14 13 12 12 13 14 16 18 19 19 19 19 18 17 15 11 13 18 25 31 22 15 9 11 22 30 28 34 31 27 23 31 30 22 15 18 15 14 13 16 19 22 24 26 27 29 31 33 34 36 39 41 42
17 16 14 13 13 12 10 8 7 11 17 20 20 18 15 12 11 17 32 24 19 24 18 16 15 22 28 29 25 29 25 25 27 24 26 13 15 12 14 15 18 20 21 23 24 27 29 31 32 34 35 36 38 38
17 17 17 19 21 21 19 17 15 10 9 14 20 21 17 14 15 19 23 26 27 25 23 18 22 18 25 33 32 30 13 8 11 22 28 22 16 15 18 16 17 19 20 24 28 30 30 31 31 32 34 36 36 38
23 28 29 28 26 21 16 11 8 7 17 17 19 22 22 22 23 25 30 28 25 28 22 16 15 19 16 16 12 7 6 5 6 8 10 12 14 15 19 22 24 25 26 27 28 29 31 33 36 37 39 39 41 43
19 21 20 19 19 23 22 17 14 13 14 19 18 29 28 28 33 27 27 26 24 24 14 14 11 12 4 3 3 1 4 4 2 4 10 10 12 17 20 21 24 25 26 28 30 32 35 37 39 41 42 44 45 46
16 17 17 16 20 19 18 19 20 22 26 28 25 30 35 38 32 23 18 15 11 15 12 10 9 6 4 2 3 4 6 6 4 5 8 11 15 18 21 23 26 27 29 30 32 33 35 37 39 41 43 45 47 49
19 20 20 21 21 22 23 25 21 21 25 29 29 30 40 34 24 16 11 8 9 8 8 2 7 6 7 3 3 3 4 5 6 8 11 15 18 21 24 26 28 31 33 35 37 39 41 43 46 48 51 54 57 59
27 26 28 28 28 27 26 27 27 25 27 33 36 35 34 28 19 16 14 12 13 15 6 3 3 2 3 5 8 11 12 14 16 18 20 22 25 28 31 35 37 40 41 42 44 47 49 51 53 55 56 58 59 61
20 23 25 26 27 26 26 26 26 27 27 29 29 28 26 25 24 23 21 21 17 11 6 3 3 4 7 9 11 14 17 22 26 30 33 36 39 41 44 46 48 49 51 52 53 54 55 57 58 58 59 60 62 63
15 16 16 18 18 18 22 22 21 20 21 23 22 19 20 18 16 16 11 7 4 1 2 5 9 13 16 20 23 27 30 33 37 40 42 45 47 50 52 54 55 54 54 53 54 55 55 54 54 54 54 54 54 53
11 13 12 11 11 10 13 17 15 13 13 14 15 13 13 12 9 8 4 1 3 7 11 15 19 23 27 30 33 36 40 42 45 49 51 54 55 57 58 59 58 56 53 51 50 50 49 49 48 49 49 49 49 49
8 9 7 9 10 11 8 10 11 12 11 11 10 8 7 4 2 2 5 9 13 17 21 24 28 31 34 37 39 42 44 48 52 55 57 58 58 57 56 56 53 50 48 47 46 45 45 44 42 41 39 35 33 31
7 9 10 11 11 11 10 10 9 8 6 4 3 3 5 7 9 13 16 19 22 25 28 30 33 36 39 43 46 50 54 58 60 60 58 58 55 51 45 40 38 36 34 32 30 29 27 26 24 23 23 22 23 25
8 8 9 9 9 7 5 3 1 2 3 5 7 10 12 14 17 20 22 25 28 30 32 36 38 41 45 49 54 58 60 58 56 53 48 41 36 32 28 25 23 23 23 23 23 23 21 18 16 18 21 22 25 27
10 9 9 7 5 3 2 3 5 7 9 11 13 15 17 20 22 25 27 30 31 34 36 39 43 49 53 57 59 56 54 50 43 37 33 30 26 25 24 25 26 26 25 20 13 12 14 16 18 21 23 26 28 31
9 8 7 5 5 5 7 9 10 12 14 15 17 20 23 25 26 28 30 33 36 38 42 47 52 56 59 56 53 50 45 40 36 34 32 31 30 28 27 25 23 14 9 10 12 15 17 19 22 25 27 30 32 34
10 9 8 9 10 11 12 13 15 16 18 20 23 26 26 27 29 32 34 37 40 45 50 54 58 56 52 51 47 43 42 41 38 35 31 28 25 22 20 13 8 8 10 13 16 20 23 26 28 30 31 33 35 36
13 13 13 14 15 15 16 18 20 22 24 26 27 27 28 31 33 36 39 42 47 51 55 56 51 50 48 44 45 46 41 36 31 27 22 18 16 11 5 5 8 11 14 18 22 26 29 29 30 31 34 35 36 37
18 17 17 16 17 19 21 23 24 27 28 27 28 31 33 36 37 40 43 46 50 53 52 49 50 44 43 41 33 27 23 19 14 9 7 4 3 2 4 7 11 15 19 24 28 30 29 30 33 34 35 37 38 41
18 18 19 20 22 23 25 27 28 28 29 31 34 36 37 39 41 43 46 48 50 49 47 46 41 39 33 20 12 11 10 9 7 5 4 1 2 5 8 12 17 21 26 29 29 29 31 33 35 36 38 40 42 43